<?xml version="1.0" encoding="UTF-8" standalone="no" ?>
<gpx xmlns="http://www.topografix.com/GPX/1/1" xmlns:xsi="http://www.w3.org/2001/XMLSchema-instance" xsi:schemaLocation="http://www.topografix.com/GPX/1/1 http://www.topografix.com/GPX/1/1/gpx.xsd" version="1.1" creator="VisuGPX - https://www.visugpx.com">
  <metadata>
    <name>Saint Montan DEB N4 IBP 94 24km d900</name>
    <desc><![CDATA[Réalisé le 030222]]></desc>
  </metadata>
  <trk>
    <name><![CDATA[2022-02-03 08:59]]></name>
    <extensions>
      <line xmlns="http://www.topografix.com/GPX/gpx_style/0/2">
        <color>0000FF</color>
        <opacity>0.59</opacity>
        <width>6</width>
      </line>
    </extensions>
    <trkseg>
      <trkpt lat="44.43952" lon="4.62408">
        <ele>110.16</ele>
        <time>2022-02-03T07:59:33.671Z</time>
      </trkpt>
      <trkpt lat="44.43956" lon="4.62396">
        <ele>111.11</ele>
        <time>2022-02-03T07:59:59.273Z</time>
      </trkpt>
      <trkpt lat="44.43978" lon="4.62377">
        <ele>112.02</ele>
        <time>2022-02-03T08:00:22.550Z</time>
      </trkpt>
      <trkpt lat="44.43999" lon="4.62343">
        <ele>112.74</ele>
        <time>2022-02-03T08:00:42.553Z</time>
      </trkpt>
      <trkpt lat="44.44008" lon="4.62332">
        <ele>112.84</ele>
        <time>2022-02-03T08:00:52.635Z</time>
      </trkpt>
      <trkpt lat="44.44014" lon="4.62294">
        <ele>113.74</ele>
        <time>2022-02-03T08:01:11.574Z</time>
      </trkpt>
      <trkpt lat="44.44025" lon="4.62271">
        <ele>115.3</ele>
        <time>2022-02-03T08:01:31.873Z</time>
      </trkpt>
      <trkpt lat="44.44049" lon="4.62247">
        <ele>119.74</ele>
        <time>2022-02-03T08:01:51.492Z</time>
      </trkpt>
      <trkpt lat="44.44063" lon="4.62222">
        <ele>120.61</ele>
        <time>2022-02-03T08:02:10.091Z</time>
      </trkpt>
      <trkpt lat="44.44076" lon="4.62202">
        <ele>120.16</ele>
        <time>2022-02-03T08:02:28.430Z</time>
      </trkpt>
      <trkpt lat="44.44083" lon="4.62193">
        <ele>120.3</ele>
        <time>2022-02-03T08:02:38.512Z</time>
      </trkpt>
      <trkpt lat="44.44097" lon="4.62166">
        <ele>121.67</ele>
        <time>2022-02-03T08:02:57.594Z</time>
      </trkpt>
      <trkpt lat="44.44106" lon="4.62134">
        <ele>123.58</ele>
        <time>2022-02-03T08:03:17.074Z</time>
      </trkpt>
      <trkpt lat="44.44112" lon="4.62106">
        <ele>124.4</ele>
        <time>2022-02-03T08:03:35.314Z</time>
      </trkpt>
      <trkpt lat="44.44128" lon="4.62082">
        <ele>129.19</ele>
        <time>2022-02-03T08:03:55.613Z</time>
      </trkpt>
      <trkpt lat="44.44135" lon="4.62049">
        <ele>131.59</ele>
        <time>2022-02-03T08:04:14.736Z</time>
      </trkpt>
      <trkpt lat="44.44139" lon="4.62037">
        <ele>132.56</ele>
        <time>2022-02-03T08:04:24.833Z</time>
      </trkpt>
      <trkpt lat="44.4415" lon="4.62013">
        <ele>133.92</ele>
        <time>2022-02-03T08:04:46.000Z</time>
      </trkpt>
      <trkpt lat="44.44148" lon="4.61982">
        <ele>133.3</ele>
        <time>2022-02-03T08:05:05.034Z</time>
      </trkpt>
      <trkpt lat="44.44141" lon="4.61956">
        <ele>133.97</ele>
        <time>2022-02-03T08:05:24.820Z</time>
      </trkpt>
      <trkpt lat="44.4414" lon="4.61926">
        <ele>135.91</ele>
        <time>2022-02-03T08:06:09.717Z</time>
      </trkpt>
      <trkpt lat="44.44157" lon="4.61928">
        <ele>132.15</ele>
        <time>2022-02-03T08:07:08.707Z</time>
      </trkpt>
      <trkpt lat="44.44165" lon="4.61919">
        <ele>131.84</ele>
        <time>2022-02-03T08:09:18.419Z</time>
      </trkpt>
      <trkpt lat="44.44181" lon="4.61903">
        <ele>133.73</ele>
        <time>2022-02-03T08:09:40.999Z</time>
      </trkpt>
      <trkpt lat="44.44203" lon="4.61906">
        <ele>136.73</ele>
        <time>2022-02-03T08:09:59.459Z</time>
      </trkpt>
      <trkpt lat="44.4422" lon="4.61908">
        <ele>140.74</ele>
        <time>2022-02-03T08:10:24.661Z</time>
      </trkpt>
      <trkpt lat="44.4424" lon="4.61914">
        <ele>145.72</ele>
        <time>2022-02-03T08:10:45.229Z</time>
      </trkpt>
      <trkpt lat="44.44249" lon="4.61919">
        <ele>147.97</ele>
        <time>2022-02-03T08:10:57.608Z</time>
      </trkpt>
      <trkpt lat="44.44275" lon="4.61932">
        <ele>154.06</ele>
        <time>2022-02-03T08:11:17.047Z</time>
      </trkpt>
      <trkpt lat="44.44291" lon="4.6195">
        <ele>161.46</ele>
        <time>2022-02-03T08:11:42.816Z</time>
      </trkpt>
      <trkpt lat="44.44306" lon="4.6197">
        <ele>169.81</ele>
        <time>2022-02-03T08:12:11.731Z</time>
      </trkpt>
      <trkpt lat="44.44324" lon="4.61966">
        <ele>170.92</ele>
        <time>2022-02-03T08:12:36.871Z</time>
      </trkpt>
      <trkpt lat="44.44342" lon="4.61962">
        <ele>175.01</ele>
        <time>2022-02-03T08:12:57.691Z</time>
      </trkpt>
      <trkpt lat="44.44352" lon="4.61962">
        <ele>178.89</ele>
        <time>2022-02-03T08:13:10.752Z</time>
      </trkpt>
      <trkpt lat="44.44367" lon="4.61941">
        <ele>181.98</ele>
        <time>2022-02-03T08:13:32.510Z</time>
      </trkpt>
      <trkpt lat="44.44378" lon="4.61919">
        <ele>184.59</ele>
        <time>2022-02-03T08:13:51.999Z</time>
      </trkpt>
      <trkpt lat="44.44385" lon="4.61891">
        <ele>186.12</ele>
        <time>2022-02-03T08:14:11.893Z</time>
      </trkpt>
      <trkpt lat="44.44398" lon="4.6187">
        <ele>192.46</ele>
        <time>2022-02-03T08:14:50.853Z</time>
      </trkpt>
      <trkpt lat="44.44407" lon="4.61848">
        <ele>195.46</ele>
        <time>2022-02-03T08:15:11.613Z</time>
      </trkpt>
      <trkpt lat="44.44409" lon="4.61834">
        <ele>194.67</ele>
        <time>2022-02-03T08:15:24.653Z</time>
      </trkpt>
      <trkpt lat="44.44417" lon="4.61811">
        <ele>193.82</ele>
        <time>2022-02-03T08:15:54.614Z</time>
      </trkpt>
      <trkpt lat="44.44432" lon="4.61795">
        <ele>195.77</ele>
        <time>2022-02-03T08:16:26.572Z</time>
      </trkpt>
      <trkpt lat="44.44452" lon="4.61792">
        <ele>203.07</ele>
        <time>2022-02-03T08:16:47.999Z</time>
      </trkpt>
      <trkpt lat="44.4447" lon="4.61783">
        <ele>206.81</ele>
        <time>2022-02-03T08:17:10.714Z</time>
      </trkpt>
      <trkpt lat="44.44489" lon="4.61783">
        <ele>215.63</ele>
        <time>2022-02-03T08:17:37.437Z</time>
      </trkpt>
      <trkpt lat="44.44498" lon="4.61779">
        <ele>217.97</ele>
        <time>2022-02-03T08:17:53.557Z</time>
      </trkpt>
      <trkpt lat="44.44514" lon="4.61767">
        <ele>221.02</ele>
        <time>2022-02-03T08:18:14.835Z</time>
      </trkpt>
      <trkpt lat="44.44533" lon="4.61762">
        <ele>229.84</ele>
        <time>2022-02-03T08:18:41.696Z</time>
      </trkpt>
      <trkpt lat="44.44549" lon="4.61748">
        <ele>234.42</ele>
        <time>2022-02-03T08:19:02.000Z</time>
      </trkpt>
      <trkpt lat="44.44567" lon="4.61738">
        <ele>241.68</ele>
        <time>2022-02-03T08:19:26.450Z</time>
      </trkpt>
      <trkpt lat="44.44581" lon="4.61722">
        <ele>243.82</ele>
        <time>2022-02-03T08:19:49.412Z</time>
      </trkpt>
      <trkpt lat="44.44589" lon="4.61714">
        <ele>245.62</ele>
        <time>2022-02-03T08:20:00.591Z</time>
      </trkpt>
      <trkpt lat="44.44592" lon="4.61677">
        <ele>233.97</ele>
        <time>2022-02-03T08:20:20.869Z</time>
      </trkpt>
      <trkpt lat="44.446" lon="4.61651">
        <ele>233.33</ele>
        <time>2022-02-03T08:20:45.857Z</time>
      </trkpt>
      <trkpt lat="44.44602" lon="4.6162">
        <ele>230.47</ele>
        <time>2022-02-03T08:21:10.756Z</time>
      </trkpt>
      <trkpt lat="44.44616" lon="4.61597">
        <ele>238.8</ele>
        <time>2022-02-03T08:21:30.490Z</time>
      </trkpt>
      <trkpt lat="44.44625" lon="4.61564">
        <ele>243.24</ele>
        <time>2022-02-03T08:21:49.815Z</time>
      </trkpt>
      <trkpt lat="44.44628" lon="4.61552">
        <ele>244.71</ele>
        <time>2022-02-03T08:21:59.860Z</time>
      </trkpt>
      <trkpt lat="44.44636" lon="4.61527">
        <ele>249.27</ele>
        <time>2022-02-03T08:22:29.000Z</time>
      </trkpt>
      <trkpt lat="44.44636" lon="4.61501">
        <ele>247.75</ele>
        <time>2022-02-03T08:22:55.000Z</time>
      </trkpt>
      <trkpt lat="44.44647" lon="4.61482">
        <ele>257.07</ele>
        <time>2022-02-03T08:24:08.000Z</time>
      </trkpt>
      <trkpt lat="44.44649" lon="4.6146">
        <ele>259.15</ele>
        <time>2022-02-03T08:24:52.410Z</time>
      </trkpt>
      <trkpt lat="44.44662" lon="4.61479">
        <ele>268.3</ele>
        <time>2022-02-03T08:25:39.509Z</time>
      </trkpt>
      <trkpt lat="44.44661" lon="4.61492">
        <ele>267.69</ele>
        <time>2022-02-03T08:26:28.000Z</time>
      </trkpt>
      <trkpt lat="44.44652" lon="4.6147">
        <ele>261.26</ele>
        <time>2022-02-03T08:34:58.999Z</time>
      </trkpt>
      <trkpt lat="44.4466" lon="4.61446">
        <ele>267.62</ele>
        <time>2022-02-03T08:36:05.431Z</time>
      </trkpt>
      <trkpt lat="44.44673" lon="4.61429">
        <ele>276.62</ele>
        <time>2022-02-03T08:36:33.999Z</time>
      </trkpt>
      <trkpt lat="44.44687" lon="4.61411">
        <ele>285.68</ele>
        <time>2022-02-03T08:37:14.552Z</time>
      </trkpt>
      <trkpt lat="44.44695" lon="4.61434">
        <ele>290.6</ele>
        <time>2022-02-03T08:37:50.512Z</time>
      </trkpt>
      <trkpt lat="44.44698" lon="4.61447">
        <ele>292.34</ele>
        <time>2022-02-03T08:38:07.634Z</time>
      </trkpt>
      <trkpt lat="44.44704" lon="4.61471">
        <ele>295.56</ele>
        <time>2022-02-03T08:38:49.275Z</time>
      </trkpt>
      <trkpt lat="44.44729" lon="4.61488">
        <ele>308.35</ele>
        <time>2022-02-03T08:40:15.591Z</time>
      </trkpt>
      <trkpt lat="44.44746" lon="4.61488">
        <ele>314.81</ele>
        <time>2022-02-03T08:40:47.340Z</time>
      </trkpt>
      <trkpt lat="44.44752" lon="4.6145">
        <ele>317.14</ele>
        <time>2022-02-03T08:43:37.491Z</time>
      </trkpt>
      <trkpt lat="44.4475" lon="4.61434">
        <ele>316.68</ele>
        <time>2022-02-03T08:43:47.000Z</time>
      </trkpt>
      <trkpt lat="44.44751" lon="4.61409">
        <ele>317.47</ele>
        <time>2022-02-03T08:44:09.392Z</time>
      </trkpt>
      <trkpt lat="44.44756" lon="4.6138">
        <ele>319.87</ele>
        <time>2022-02-03T08:44:28.171Z</time>
      </trkpt>
      <trkpt lat="44.44767" lon="4.61362">
        <ele>323.29</ele>
        <time>2022-02-03T08:44:48.131Z</time>
      </trkpt>
      <trkpt lat="44.44791" lon="4.61346">
        <ele>328.14</ele>
        <time>2022-02-03T08:45:16.671Z</time>
      </trkpt>
      <trkpt lat="44.44802" lon="4.6132">
        <ele>328.94</ele>
        <time>2022-02-03T08:45:35.750Z</time>
      </trkpt>
      <trkpt lat="44.4481" lon="4.61309">
        <ele>329.11</ele>
        <time>2022-02-03T08:45:45.651Z</time>
      </trkpt>
      <trkpt lat="44.44827" lon="4.61297">
        <ele>330.76</ele>
        <time>2022-02-03T08:46:04.651Z</time>
      </trkpt>
      <trkpt lat="44.44848" lon="4.61293">
        <ele>333.31</ele>
        <time>2022-02-03T08:46:25.000Z</time>
      </trkpt>
      <trkpt lat="44.44874" lon="4.61287">
        <ele>334.68</ele>
        <time>2022-02-03T08:46:59.432Z</time>
      </trkpt>
      <trkpt lat="44.44902" lon="4.61278">
        <ele>334.9</ele>
        <time>2022-02-03T08:47:17.898Z</time>
      </trkpt>
      <trkpt lat="44.44922" lon="4.61267">
        <ele>335.1</ele>
        <time>2022-02-03T08:47:47.354Z</time>
      </trkpt>
      <trkpt lat="44.44939" lon="4.61269">
        <ele>336.24</ele>
        <time>2022-02-03T08:47:56.825Z</time>
      </trkpt>
      <trkpt lat="44.44956" lon="4.61255">
        <ele>336.35</ele>
        <time>2022-02-03T08:48:16.415Z</time>
      </trkpt>
      <trkpt lat="44.44978" lon="4.61229">
        <ele>335.57</ele>
        <time>2022-02-03T08:48:35.999Z</time>
      </trkpt>
      <trkpt lat="44.44992" lon="4.61201">
        <ele>333.09</ele>
        <time>2022-02-03T08:48:56.457Z</time>
      </trkpt>
      <trkpt lat="44.45002" lon="4.61171">
        <ele>330.61</ele>
        <time>2022-02-03T08:49:15.314Z</time>
      </trkpt>
      <trkpt lat="44.45008" lon="4.61147">
        <ele>328.98</ele>
        <time>2022-02-03T08:49:46.697Z</time>
      </trkpt>
      <trkpt lat="44.45014" lon="4.61126">
        <ele>327.9</ele>
        <time>2022-02-03T08:49:55.999Z</time>
      </trkpt>
      <trkpt lat="44.45028" lon="4.61096">
        <ele>327.57</ele>
        <time>2022-02-03T08:50:14.357Z</time>
      </trkpt>
      <trkpt lat="44.4505" lon="4.6107">
        <ele>329.06</ele>
        <time>2022-02-03T08:50:43.902Z</time>
      </trkpt>
      <trkpt lat="44.45065" lon="4.61036">
        <ele>329.7</ele>
        <time>2022-02-03T08:51:04.693Z</time>
      </trkpt>
      <trkpt lat="44.45054" lon="4.61005">
        <ele>330.27</ele>
        <time>2022-02-03T08:51:24.452Z</time>
      </trkpt>
      <trkpt lat="44.45039" lon="4.60985">
        <ele>330.61</ele>
        <time>2022-02-03T08:51:44.999Z</time>
      </trkpt>
      <trkpt lat="44.4503" lon="4.60973">
        <ele>330.92</ele>
        <time>2022-02-03T08:51:54.397Z</time>
      </trkpt>
      <trkpt lat="44.45019" lon="4.6095">
        <ele>332.26</ele>
        <time>2022-02-03T08:52:13.233Z</time>
      </trkpt>
      <trkpt lat="44.45019" lon="4.60922">
        <ele>334.25</ele>
        <time>2022-02-03T08:52:33.968Z</time>
      </trkpt>
      <trkpt lat="44.45017" lon="4.60896">
        <ele>335.26</ele>
        <time>2022-02-03T08:52:54.053Z</time>
      </trkpt>
      <trkpt lat="44.45013" lon="4.6087">
        <ele>335.84</ele>
        <time>2022-02-03T08:53:14.412Z</time>
      </trkpt>
      <trkpt lat="44.45009" lon="4.60838">
        <ele>336.07</ele>
        <time>2022-02-03T08:53:33.253Z</time>
      </trkpt>
      <trkpt lat="44.45011" lon="4.60823">
        <ele>335.96</ele>
        <time>2022-02-03T08:53:42.631Z</time>
      </trkpt>
      <trkpt lat="44.45015" lon="4.60785">
        <ele>334.79</ele>
        <time>2022-02-03T08:54:02.573Z</time>
      </trkpt>
      <trkpt lat="44.45018" lon="4.60758">
        <ele>333.7</ele>
        <time>2022-02-03T08:54:21.232Z</time>
      </trkpt>
      <trkpt lat="44.45022" lon="4.6073">
        <ele>332.56</ele>
        <time>2022-02-03T08:54:41.713Z</time>
      </trkpt>
      <trkpt lat="44.45025" lon="4.60702">
        <ele>331.31</ele>
        <time>2022-02-03T08:55:13.376Z</time>
      </trkpt>
      <trkpt lat="44.45032" lon="4.60647">
        <ele>331.2</ele>
        <time>2022-02-03T08:55:32.999Z</time>
      </trkpt>
      <trkpt lat="44.45034" lon="4.60625">
        <ele>332.5</ele>
        <time>2022-02-03T08:55:42.537Z</time>
      </trkpt>
      <trkpt lat="44.45041" lon="4.60595">
        <ele>334.41</ele>
        <time>2022-02-03T08:56:08.334Z</time>
      </trkpt>
      <trkpt lat="44.45058" lon="4.60555">
        <ele>335.56</ele>
        <time>2022-02-03T08:56:26.810Z</time>
      </trkpt>
      <trkpt lat="44.4507" lon="4.60528">
        <ele>335.72</ele>
        <time>2022-02-03T08:56:45.694Z</time>
      </trkpt>
      <trkpt lat="44.45069" lon="4.60497">
        <ele>336.01</ele>
        <time>2022-02-03T08:57:04.334Z</time>
      </trkpt>
      <trkpt lat="44.45067" lon="4.60482">
        <ele>335.7</ele>
        <time>2022-02-03T08:57:13.634Z</time>
      </trkpt>
      <trkpt lat="44.45062" lon="4.60448">
        <ele>334.44</ele>
        <time>2022-02-03T08:57:32.752Z</time>
      </trkpt>
      <trkpt lat="44.45053" lon="4.60425">
        <ele>333.9</ele>
        <time>2022-02-03T08:57:52.552Z</time>
      </trkpt>
      <trkpt lat="44.45047" lon="4.60394">
        <ele>333.04</ele>
        <time>2022-02-03T08:58:11.494Z</time>
      </trkpt>
      <trkpt lat="44.45041" lon="4.6036">
        <ele>332.09</ele>
        <time>2022-02-03T08:58:29.675Z</time>
      </trkpt>
      <trkpt lat="44.45049" lon="4.60331">
        <ele>329.79</ele>
        <time>2022-02-03T08:58:47.818Z</time>
      </trkpt>
      <trkpt lat="44.45053" lon="4.60318">
        <ele>328.83</ele>
        <time>2022-02-03T08:58:57.000Z</time>
      </trkpt>
      <trkpt lat="44.45046" lon="4.60281">
        <ele>327.98</ele>
        <time>2022-02-03T08:59:17.129Z</time>
      </trkpt>
      <trkpt lat="44.45037" lon="4.60251">
        <ele>327.3</ele>
        <time>2022-02-03T08:59:35.692Z</time>
      </trkpt>
      <trkpt lat="44.45028" lon="4.60219">
        <ele>326.16</ele>
        <time>2022-02-03T08:59:54.250Z</time>
      </trkpt>
      <trkpt lat="44.45014" lon="4.60195">
        <ele>325.46</ele>
        <time>2022-02-03T09:00:12.449Z</time>
      </trkpt>
      <trkpt lat="44.45001" lon="4.60169">
        <ele>324.15</ele>
        <time>2022-02-03T09:00:31.149Z</time>
      </trkpt>
      <trkpt lat="44.44996" lon="4.60156">
        <ele>323.3</ele>
        <time>2022-02-03T09:00:40.153Z</time>
      </trkpt>
      <trkpt lat="44.4498" lon="4.60135">
        <ele>321.9</ele>
        <time>2022-02-03T09:00:58.853Z</time>
      </trkpt>
      <trkpt lat="44.44959" lon="4.60108">
        <ele>320.13</ele>
        <time>2022-02-03T09:01:17.697Z</time>
      </trkpt>
      <trkpt lat="44.44949" lon="4.60081">
        <ele>317.98</ele>
        <time>2022-02-03T09:01:43.265Z</time>
      </trkpt>
      <trkpt lat="44.44934" lon="4.6005">
        <ele>315.32</ele>
        <time>2022-02-03T09:02:02.472Z</time>
      </trkpt>
      <trkpt lat="44.4493" lon="4.60018">
        <ele>312.36</ele>
        <time>2022-02-03T09:04:19.652Z</time>
      </trkpt>
      <trkpt lat="44.44939" lon="4.60013">
        <ele>311.97</ele>
        <time>2022-02-03T09:04:51.131Z</time>
      </trkpt>
      <trkpt lat="44.44941" lon="4.5998">
        <ele>310.28</ele>
        <time>2022-02-03T09:06:15.999Z</time>
      </trkpt>
      <trkpt lat="44.44931" lon="4.59977">
        <ele>310.16</ele>
        <time>2022-02-03T09:11:11.788Z</time>
      </trkpt>
      <trkpt lat="44.44906" lon="4.59971">
        <ele>309.66</ele>
        <time>2022-02-03T09:11:35.999Z</time>
      </trkpt>
      <trkpt lat="44.44897" lon="4.59941">
        <ele>308.93</ele>
        <time>2022-02-03T09:11:54.729Z</time>
      </trkpt>
      <trkpt lat="44.4489" lon="4.59912">
        <ele>308.22</ele>
        <time>2022-02-03T09:12:14.999Z</time>
      </trkpt>
      <trkpt lat="44.44886" lon="4.59897">
        <ele>307.83</ele>
        <time>2022-02-03T09:12:24.090Z</time>
      </trkpt>
      <trkpt lat="44.4488" lon="4.59866">
        <ele>307.31</ele>
        <time>2022-02-03T09:12:42.791Z</time>
      </trkpt>
      <trkpt lat="44.44873" lon="4.59838">
        <ele>306.78</ele>
        <time>2022-02-03T09:13:01.819Z</time>
      </trkpt>
      <trkpt lat="44.44854" lon="4.59829">
        <ele>306.31</ele>
        <time>2022-02-03T09:13:21.257Z</time>
      </trkpt>
      <trkpt lat="44.44832" lon="4.59816">
        <ele>305.51</ele>
        <time>2022-02-03T09:13:39.556Z</time>
      </trkpt>
      <trkpt lat="44.44808" lon="4.59822">
        <ele>305.07</ele>
        <time>2022-02-03T09:13:58.115Z</time>
      </trkpt>
      <trkpt lat="44.44795" lon="4.59825">
        <ele>304.76</ele>
        <time>2022-02-03T09:14:07.655Z</time>
      </trkpt>
      <trkpt lat="44.44777" lon="4.59831">
        <ele>304.16</ele>
        <time>2022-02-03T09:14:26.494Z</time>
      </trkpt>
      <trkpt lat="44.44756" lon="4.59839">
        <ele>303.28</ele>
        <time>2022-02-03T09:14:44.891Z</time>
      </trkpt>
      <trkpt lat="44.44744" lon="4.59805">
        <ele>302.31</ele>
        <time>2022-02-03T09:15:04.594Z</time>
      </trkpt>
      <trkpt lat="44.44741" lon="4.59775">
        <ele>301.27</ele>
        <time>2022-02-03T09:15:24.655Z</time>
      </trkpt>
      <trkpt lat="44.44733" lon="4.59748">
        <ele>300.36</ele>
        <time>2022-02-03T09:15:42.756Z</time>
      </trkpt>
      <trkpt lat="44.44724" lon="4.59736">
        <ele>299.83</ele>
        <time>2022-02-03T09:15:52.414Z</time>
      </trkpt>
      <trkpt lat="44.4471" lon="4.59705">
        <ele>299.26</ele>
        <time>2022-02-03T09:16:11.075Z</time>
      </trkpt>
      <trkpt lat="44.44697" lon="4.59677">
        <ele>299.11</ele>
        <time>2022-02-03T09:16:29.833Z</time>
      </trkpt>
      <trkpt lat="44.44685" lon="4.59657">
        <ele>299.15</ele>
        <time>2022-02-03T09:16:48.676Z</time>
      </trkpt>
      <trkpt lat="44.44672" lon="4.59628">
        <ele>299.43</ele>
        <time>2022-02-03T09:17:07.873Z</time>
      </trkpt>
      <trkpt lat="44.44654" lon="4.59605">
        <ele>299.89</ele>
        <time>2022-02-03T09:17:26.894Z</time>
      </trkpt>
      <trkpt lat="44.44646" lon="4.59592">
        <ele>300.2</ele>
        <time>2022-02-03T09:17:36.176Z</time>
      </trkpt>
      <trkpt lat="44.44634" lon="4.59572">
        <ele>300.81</ele>
        <time>2022-02-03T09:17:54.434Z</time>
      </trkpt>
      <trkpt lat="44.44619" lon="4.59545">
        <ele>301.93</ele>
        <time>2022-02-03T09:18:13.136Z</time>
      </trkpt>
      <trkpt lat="44.44606" lon="4.59517">
        <ele>303.37</ele>
        <time>2022-02-03T09:18:31.394Z</time>
      </trkpt>
      <trkpt lat="44.44598" lon="4.59492">
        <ele>304.55</ele>
        <time>2022-02-03T09:18:50.492Z</time>
      </trkpt>
      <trkpt lat="44.44595" lon="4.59474">
        <ele>305.04</ele>
        <time>2022-02-03T09:19:00.473Z</time>
      </trkpt>
      <trkpt lat="44.44591" lon="4.59441">
        <ele>305.79</ele>
        <time>2022-02-03T09:19:19.654Z</time>
      </trkpt>
      <trkpt lat="44.44582" lon="4.59409">
        <ele>307.27</ele>
        <time>2022-02-03T09:19:38.478Z</time>
      </trkpt>
      <trkpt lat="44.44573" lon="4.59379">
        <ele>308.92</ele>
        <time>2022-02-03T09:19:57.772Z</time>
      </trkpt>
      <trkpt lat="44.44566" lon="4.59353">
        <ele>310</ele>
        <time>2022-02-03T09:20:16.000Z</time>
      </trkpt>
      <trkpt lat="44.44548" lon="4.59336">
        <ele>312.13</ele>
        <time>2022-02-03T09:20:34.613Z</time>
      </trkpt>
      <trkpt lat="44.44539" lon="4.59323">
        <ele>312.9</ele>
        <time>2022-02-03T09:20:43.675Z</time>
      </trkpt>
      <trkpt lat="44.44527" lon="4.59294">
        <ele>313.63</ele>
        <time>2022-02-03T09:21:02.655Z</time>
      </trkpt>
      <trkpt lat="44.44513" lon="4.5927">
        <ele>313.94</ele>
        <time>2022-02-03T09:21:22.315Z</time>
      </trkpt>
      <trkpt lat="44.44497" lon="4.5925">
        <ele>314.1</ele>
        <time>2022-02-03T09:21:40.554Z</time>
      </trkpt>
      <trkpt lat="44.44487" lon="4.59221">
        <ele>314.59</ele>
        <time>2022-02-03T09:21:59.113Z</time>
      </trkpt>
      <trkpt lat="44.44477" lon="4.59229">
        <ele>315.08</ele>
        <time>2022-02-03T09:22:17.695Z</time>
      </trkpt>
      <trkpt lat="44.44475" lon="4.59249">
        <ele>315.37</ele>
        <time>2022-02-03T09:22:26.768Z</time>
      </trkpt>
      <trkpt lat="44.44468" lon="4.59278">
        <ele>317</ele>
        <time>2022-02-03T09:22:46.832Z</time>
      </trkpt>
      <trkpt lat="44.44459" lon="4.59306">
        <ele>319.22</ele>
        <time>2022-02-03T09:23:06.000Z</time>
      </trkpt>
      <trkpt lat="44.44451" lon="4.59334">
        <ele>321.62</ele>
        <time>2022-02-03T09:23:27.000Z</time>
      </trkpt>
      <trkpt lat="44.44442" lon="4.59368">
        <ele>324.49</ele>
        <time>2022-02-03T09:23:46.497Z</time>
      </trkpt>
      <trkpt lat="44.4444" lon="4.594">
        <ele>326.61</ele>
        <time>2022-02-03T09:24:05.757Z</time>
      </trkpt>
      <trkpt lat="44.4444" lon="4.59417">
        <ele>327.46</ele>
        <time>2022-02-03T09:24:15.097Z</time>
      </trkpt>
      <trkpt lat="44.44438" lon="4.59445">
        <ele>328.75</ele>
        <time>2022-02-03T09:24:33.558Z</time>
      </trkpt>
      <trkpt lat="44.4442" lon="4.59469">
        <ele>330.7</ele>
        <time>2022-02-03T09:24:54.000Z</time>
      </trkpt>
      <trkpt lat="44.44402" lon="4.59482">
        <ele>332.49</ele>
        <time>2022-02-03T09:25:12.370Z</time>
      </trkpt>
      <trkpt lat="44.44392" lon="4.59505">
        <ele>334.07</ele>
        <time>2022-02-03T09:25:31.329Z</time>
      </trkpt>
      <trkpt lat="44.4438" lon="4.59527">
        <ele>335.59</ele>
        <time>2022-02-03T09:25:49.752Z</time>
      </trkpt>
      <trkpt lat="44.44372" lon="4.59539">
        <ele>336.5</ele>
        <time>2022-02-03T09:25:58.814Z</time>
      </trkpt>
      <trkpt lat="44.44359" lon="4.5953">
        <ele>337.24</ele>
        <time>2022-02-03T09:26:21.093Z</time>
      </trkpt>
      <trkpt lat="44.44355" lon="4.59498">
        <ele>335.93</ele>
        <time>2022-02-03T09:26:45.999Z</time>
      </trkpt>
      <trkpt lat="44.44337" lon="4.59473">
        <ele>334.82</ele>
        <time>2022-02-03T09:27:05.999Z</time>
      </trkpt>
      <trkpt lat="44.44316" lon="4.59462">
        <ele>334.81</ele>
        <time>2022-02-03T09:27:25.691Z</time>
      </trkpt>
      <trkpt lat="44.44298" lon="4.59443">
        <ele>334.1</ele>
        <time>2022-02-03T09:27:47.452Z</time>
      </trkpt>
      <trkpt lat="44.44292" lon="4.59433">
        <ele>333.47</ele>
        <time>2022-02-03T09:27:57.311Z</time>
      </trkpt>
      <trkpt lat="44.44275" lon="4.59404">
        <ele>331.19</ele>
        <time>2022-02-03T09:28:15.890Z</time>
      </trkpt>
      <trkpt lat="44.4426" lon="4.59373">
        <ele>327.37</ele>
        <time>2022-02-03T09:28:34.732Z</time>
      </trkpt>
      <trkpt lat="44.44245" lon="4.59352">
        <ele>324.69</ele>
        <time>2022-02-03T09:28:53.835Z</time>
      </trkpt>
      <trkpt lat="44.44229" lon="4.59328">
        <ele>321.72</ele>
        <time>2022-02-03T09:29:13.999Z</time>
      </trkpt>
      <trkpt lat="44.44213" lon="4.59308">
        <ele>319.48</ele>
        <time>2022-02-03T09:29:33.999Z</time>
      </trkpt>
      <trkpt lat="44.44206" lon="4.59295">
        <ele>317.9</ele>
        <time>2022-02-03T09:29:43.999Z</time>
      </trkpt>
      <trkpt lat="44.44193" lon="4.59268">
        <ele>315.3</ele>
        <time>2022-02-03T09:30:03.711Z</time>
      </trkpt>
      <trkpt lat="44.44182" lon="4.59241">
        <ele>312.66</ele>
        <time>2022-02-03T09:30:22.590Z</time>
      </trkpt>
      <trkpt lat="44.4417" lon="4.59217">
        <ele>310.54</ele>
        <time>2022-02-03T09:30:41.870Z</time>
      </trkpt>
      <trkpt lat="44.44159" lon="4.59197">
        <ele>308.05</ele>
        <time>2022-02-03T09:31:06.820Z</time>
      </trkpt>
      <trkpt lat="44.44158" lon="4.59168">
        <ele>302.93</ele>
        <time>2022-02-03T09:31:25.392Z</time>
      </trkpt>
      <trkpt lat="44.44159" lon="4.59152">
        <ele>299.55</ele>
        <time>2022-02-03T09:31:34.693Z</time>
      </trkpt>
      <trkpt lat="44.44145" lon="4.59133">
        <ele>296.31</ele>
        <time>2022-02-03T09:31:55.999Z</time>
      </trkpt>
      <trkpt lat="44.44133" lon="4.59108">
        <ele>291.99</ele>
        <time>2022-02-03T09:32:14.196Z</time>
      </trkpt>
      <trkpt lat="44.44116" lon="4.59092">
        <ele>290.69</ele>
        <time>2022-02-03T09:32:40.276Z</time>
      </trkpt>
      <trkpt lat="44.44097" lon="4.59079">
        <ele>289.84</ele>
        <time>2022-02-03T09:32:59.555Z</time>
      </trkpt>
      <trkpt lat="44.44091" lon="4.59066">
        <ele>287.81</ele>
        <time>2022-02-03T09:33:10.396Z</time>
      </trkpt>
      <trkpt lat="44.44098" lon="4.59041">
        <ele>282.99</ele>
        <time>2022-02-03T09:33:29.830Z</time>
      </trkpt>
      <trkpt lat="44.44108" lon="4.5902">
        <ele>278.95</ele>
        <time>2022-02-03T09:33:53.536Z</time>
      </trkpt>
      <trkpt lat="44.44111" lon="4.58994">
        <ele>275.25</ele>
        <time>2022-02-03T09:34:14.999Z</time>
      </trkpt>
      <trkpt lat="44.44112" lon="4.58971">
        <ele>272.67</ele>
        <time>2022-02-03T09:34:47.517Z</time>
      </trkpt>
      <trkpt lat="44.44108" lon="4.58946">
        <ele>270.29</ele>
        <time>2022-02-03T09:35:11.075Z</time>
      </trkpt>
      <trkpt lat="44.441" lon="4.58939">
        <ele>269.38</ele>
        <time>2022-02-03T09:35:21.000Z</time>
      </trkpt>
      <trkpt lat="44.44085" lon="4.58929">
        <ele>267.86</ele>
        <time>2022-02-03T09:35:39.457Z</time>
      </trkpt>
      <trkpt lat="44.44087" lon="4.58905">
        <ele>266.86</ele>
        <time>2022-02-03T09:36:37.000Z</time>
      </trkpt>
      <trkpt lat="44.44076" lon="4.58884">
        <ele>266.02</ele>
        <time>2022-02-03T09:37:00.337Z</time>
      </trkpt>
      <trkpt lat="44.44069" lon="4.58863">
        <ele>266.32</ele>
        <time>2022-02-03T09:37:44.712Z</time>
      </trkpt>
      <trkpt lat="44.44049" lon="4.58848">
        <ele>266.58</ele>
        <time>2022-02-03T09:38:04.000Z</time>
      </trkpt>
      <trkpt lat="44.44039" lon="4.58848">
        <ele>266.3</ele>
        <time>2022-02-03T09:38:13.228Z</time>
      </trkpt>
      <trkpt lat="44.44015" lon="4.5885">
        <ele>265.38</ele>
        <time>2022-02-03T09:38:31.754Z</time>
      </trkpt>
      <trkpt lat="44.44" lon="4.58867">
        <ele>262.95</ele>
        <time>2022-02-03T09:38:56.850Z</time>
      </trkpt>
      <trkpt lat="44.43981" lon="4.58878">
        <ele>260.94</ele>
        <time>2022-02-03T09:39:20.689Z</time>
      </trkpt>
      <trkpt lat="44.43977" lon="4.58903">
        <ele>259.02</ele>
        <time>2022-02-03T09:39:39.713Z</time>
      </trkpt>
      <trkpt lat="44.43968" lon="4.58932">
        <ele>258.13</ele>
        <time>2022-02-03T09:40:00.000Z</time>
      </trkpt>
      <trkpt lat="44.43963" lon="4.58945">
        <ele>258.1</ele>
        <time>2022-02-03T09:40:09.533Z</time>
      </trkpt>
      <trkpt lat="44.43945" lon="4.58965">
        <ele>257.9</ele>
        <time>2022-02-03T09:40:29.012Z</time>
      </trkpt>
      <trkpt lat="44.43923" lon="4.58981">
        <ele>257.59</ele>
        <time>2022-02-03T09:40:48.693Z</time>
      </trkpt>
      <trkpt lat="44.43909" lon="4.58998">
        <ele>258.4</ele>
        <time>2022-02-03T09:41:07.072Z</time>
      </trkpt>
      <trkpt lat="44.43887" lon="4.58996">
        <ele>257.51</ele>
        <time>2022-02-03T09:43:28.873Z</time>
      </trkpt>
      <trkpt lat="44.43867" lon="4.59005">
        <ele>257.97</ele>
        <time>2022-02-03T09:43:53.000Z</time>
      </trkpt>
      <trkpt lat="44.43857" lon="4.59008">
        <ele>257.96</ele>
        <time>2022-02-03T09:44:09.823Z</time>
      </trkpt>
      <trkpt lat="44.43834" lon="4.5901">
        <ele>256.95</ele>
        <time>2022-02-03T09:44:30.376Z</time>
      </trkpt>
      <trkpt lat="44.43824" lon="4.58999">
        <ele>255.17</ele>
        <time>2022-02-03T09:44:50.513Z</time>
      </trkpt>
      <trkpt lat="44.43806" lon="4.5901">
        <ele>253.9</ele>
        <time>2022-02-03T09:45:12.176Z</time>
      </trkpt>
      <trkpt lat="44.43787" lon="4.59014">
        <ele>251.49</ele>
        <time>2022-02-03T09:45:42.999Z</time>
      </trkpt>
      <trkpt lat="44.43766" lon="4.59017">
        <ele>249.24</ele>
        <time>2022-02-03T09:46:08.496Z</time>
      </trkpt>
      <trkpt lat="44.43753" lon="4.59013">
        <ele>247.85</ele>
        <time>2022-02-03T09:46:17.716Z</time>
      </trkpt>
      <trkpt lat="44.43734" lon="4.59">
        <ele>246.4</ele>
        <time>2022-02-03T09:46:36.436Z</time>
      </trkpt>
      <trkpt lat="44.43719" lon="4.5897">
        <ele>244.94</ele>
        <time>2022-02-03T09:46:57.336Z</time>
      </trkpt>
      <trkpt lat="44.43709" lon="4.58943">
        <ele>243.88</ele>
        <time>2022-02-03T09:47:19.999Z</time>
      </trkpt>
      <trkpt lat="44.43714" lon="4.5891">
        <ele>245.02</ele>
        <time>2022-02-03T09:47:38.477Z</time>
      </trkpt>
      <trkpt lat="44.43702" lon="4.58885">
        <ele>244.78</ele>
        <time>2022-02-03T09:47:58.297Z</time>
      </trkpt>
      <trkpt lat="44.43694" lon="4.58876">
        <ele>244.67</ele>
        <time>2022-02-03T09:48:08.999Z</time>
      </trkpt>
      <trkpt lat="44.43673" lon="4.58863">
        <ele>244.55</ele>
        <time>2022-02-03T09:48:27.377Z</time>
      </trkpt>
      <trkpt lat="44.43655" lon="4.58846">
        <ele>247.09</ele>
        <time>2022-02-03T09:48:45.397Z</time>
      </trkpt>
      <trkpt lat="44.4365" lon="4.58817">
        <ele>250.82</ele>
        <time>2022-02-03T09:49:04.678Z</time>
      </trkpt>
      <trkpt lat="44.43651" lon="4.58788">
        <ele>254.24</ele>
        <time>2022-02-03T09:49:23.560Z</time>
      </trkpt>
      <trkpt lat="44.43651" lon="4.5877">
        <ele>256</ele>
        <time>2022-02-03T09:49:33.599Z</time>
      </trkpt>
      <trkpt lat="44.43655" lon="4.58732">
        <ele>257.95</ele>
        <time>2022-02-03T09:49:53.540Z</time>
      </trkpt>
      <trkpt lat="44.43658" lon="4.58705">
        <ele>258.07</ele>
        <time>2022-02-03T09:50:12.240Z</time>
      </trkpt>
      <trkpt lat="44.43659" lon="4.58673">
        <ele>258.79</ele>
        <time>2022-02-03T09:50:30.821Z</time>
      </trkpt>
      <trkpt lat="44.43656" lon="4.58642">
        <ele>261.11</ele>
        <time>2022-02-03T09:50:49.760Z</time>
      </trkpt>
      <trkpt lat="44.43649" lon="4.58619">
        <ele>263.64</ele>
        <time>2022-02-03T09:51:10.419Z</time>
      </trkpt>
      <trkpt lat="44.43639" lon="4.58624">
        <ele>263.95</ele>
        <time>2022-02-03T09:51:19.836Z</time>
      </trkpt>
      <trkpt lat="44.43619" lon="4.58632">
        <ele>265.94</ele>
        <time>2022-02-03T09:51:44.638Z</time>
      </trkpt>
      <trkpt lat="44.43602" lon="4.58647">
        <ele>268.11</ele>
        <time>2022-02-03T09:52:08.999Z</time>
      </trkpt>
      <trkpt lat="44.43575" lon="4.58648">
        <ele>274.93</ele>
        <time>2022-02-03T09:52:36.297Z</time>
      </trkpt>
      <trkpt lat="44.43528" lon="4.58624">
        <ele>294.04</ele>
        <time>2022-02-03T09:54:03.758Z</time>
      </trkpt>
      <trkpt lat="44.43509" lon="4.58617">
        <ele>300.64</ele>
        <time>2022-02-03T09:54:23.497Z</time>
      </trkpt>
      <trkpt lat="44.435" lon="4.58615">
        <ele>302.99</ele>
        <time>2022-02-03T09:54:33.318Z</time>
      </trkpt>
      <trkpt lat="44.43481" lon="4.58607">
        <ele>306.47</ele>
        <time>2022-02-03T09:54:54.637Z</time>
      </trkpt>
      <trkpt lat="44.43462" lon="4.58603">
        <ele>308.91</ele>
        <time>2022-02-03T09:55:25.463Z</time>
      </trkpt>
      <trkpt lat="44.43444" lon="4.58598">
        <ele>310.63</ele>
        <time>2022-02-03T09:55:56.406Z</time>
      </trkpt>
      <trkpt lat="44.43424" lon="4.58593">
        <ele>312.35</ele>
        <time>2022-02-03T09:56:16.857Z</time>
      </trkpt>
      <trkpt lat="44.434" lon="4.58561">
        <ele>315.2</ele>
        <time>2022-02-03T09:57:04.388Z</time>
      </trkpt>
      <trkpt lat="44.4339" lon="4.58555">
        <ele>316.21</ele>
        <time>2022-02-03T09:57:13.389Z</time>
      </trkpt>
      <trkpt lat="44.43369" lon="4.58536">
        <ele>318.25</ele>
        <time>2022-02-03T09:58:00.668Z</time>
      </trkpt>
      <trkpt lat="44.43348" lon="4.58515">
        <ele>319.85</ele>
        <time>2022-02-03T09:58:24.808Z</time>
      </trkpt>
      <trkpt lat="44.43328" lon="4.585">
        <ele>321.25</ele>
        <time>2022-02-03T09:58:44.649Z</time>
      </trkpt>
      <trkpt lat="44.43306" lon="4.58495">
        <ele>322.38</ele>
        <time>2022-02-03T09:59:04.768Z</time>
      </trkpt>
      <trkpt lat="44.43286" lon="4.58491">
        <ele>323.26</ele>
        <time>2022-02-03T09:59:23.730Z</time>
      </trkpt>
      <trkpt lat="44.43277" lon="4.5849">
        <ele>323.59</ele>
        <time>2022-02-03T09:59:32.821Z</time>
      </trkpt>
      <trkpt lat="44.43255" lon="4.58481">
        <ele>324.18</ele>
        <time>2022-02-03T10:04:15.260Z</time>
      </trkpt>
      <trkpt lat="44.43235" lon="4.58479">
        <ele>324.42</ele>
        <time>2022-02-03T10:04:33.420Z</time>
      </trkpt>
      <trkpt lat="44.43213" lon="4.58476">
        <ele>324.44</ele>
        <time>2022-02-03T10:04:52.077Z</time>
      </trkpt>
      <trkpt lat="44.43204" lon="4.58451">
        <ele>324.34</ele>
        <time>2022-02-03T10:05:12.397Z</time>
      </trkpt>
      <trkpt lat="44.43206" lon="4.58417">
        <ele>324.59</ele>
        <time>2022-02-03T10:05:31.018Z</time>
      </trkpt>
      <trkpt lat="44.43212" lon="4.58406">
        <ele>324.93</ele>
        <time>2022-02-03T10:05:40.618Z</time>
      </trkpt>
      <trkpt lat="44.4322" lon="4.58374">
        <ele>326.2</ele>
        <time>2022-02-03T10:05:59.395Z</time>
      </trkpt>
      <trkpt lat="44.43226" lon="4.58344">
        <ele>327.47</ele>
        <time>2022-02-03T10:06:21.235Z</time>
      </trkpt>
      <trkpt lat="44.43232" lon="4.58318">
        <ele>328.3</ele>
        <time>2022-02-03T10:06:39.738Z</time>
      </trkpt>
      <trkpt lat="44.43232" lon="4.58288">
        <ele>328.92</ele>
        <time>2022-02-03T10:06:59.037Z</time>
      </trkpt>
      <trkpt lat="44.43217" lon="4.58272">
        <ele>328.67</ele>
        <time>2022-02-03T10:07:18.455Z</time>
      </trkpt>
      <trkpt lat="44.43213" lon="4.58257">
        <ele>328.72</ele>
        <time>2022-02-03T10:07:28.257Z</time>
      </trkpt>
      <trkpt lat="44.43215" lon="4.58226">
        <ele>329.39</ele>
        <time>2022-02-03T10:07:46.978Z</time>
      </trkpt>
      <trkpt lat="44.43228" lon="4.582">
        <ele>330.51</ele>
        <time>2022-02-03T10:08:05.669Z</time>
      </trkpt>
      <trkpt lat="44.43214" lon="4.5817">
        <ele>330.48</ele>
        <time>2022-02-03T10:08:24.589Z</time>
      </trkpt>
      <trkpt lat="44.43216" lon="4.58141">
        <ele>331.48</ele>
        <time>2022-02-03T10:08:43.068Z</time>
      </trkpt>
      <trkpt lat="44.43222" lon="4.58113">
        <ele>332.6</ele>
        <time>2022-02-03T10:09:02.999Z</time>
      </trkpt>
      <trkpt lat="44.43227" lon="4.58101">
        <ele>333.06</ele>
        <time>2022-02-03T10:09:12.381Z</time>
      </trkpt>
      <trkpt lat="44.43219" lon="4.5807">
        <ele>333.47</ele>
        <time>2022-02-03T10:09:38.999Z</time>
      </trkpt>
      <trkpt lat="44.43223" lon="4.58039">
        <ele>333.63</ele>
        <time>2022-02-03T10:09:59.617Z</time>
      </trkpt>
      <trkpt lat="44.43224" lon="4.58005">
        <ele>333.74</ele>
        <time>2022-02-03T10:10:19.690Z</time>
      </trkpt>
      <trkpt lat="44.43223" lon="4.57969">
        <ele>334.22</ele>
        <time>2022-02-03T10:10:38.999Z</time>
      </trkpt>
      <trkpt lat="44.4322" lon="4.57954">
        <ele>334.45</ele>
        <time>2022-02-03T10:10:48.999Z</time>
      </trkpt>
      <trkpt lat="44.43221" lon="4.57921">
        <ele>335.18</ele>
        <time>2022-02-03T10:11:07.671Z</time>
      </trkpt>
      <trkpt lat="44.43229" lon="4.57893">
        <ele>336.29</ele>
        <time>2022-02-03T10:11:26.072Z</time>
      </trkpt>
      <trkpt lat="44.4323" lon="4.57865">
        <ele>337.54</ele>
        <time>2022-02-03T10:11:49.712Z</time>
      </trkpt>
      <trkpt lat="44.43229" lon="4.57833">
        <ele>338.7</ele>
        <time>2022-02-03T10:12:08.999Z</time>
      </trkpt>
      <trkpt lat="44.43229" lon="4.57806">
        <ele>339.23</ele>
        <time>2022-02-03T10:12:32.372Z</time>
      </trkpt>
      <trkpt lat="44.4323" lon="4.57792">
        <ele>339.43</ele>
        <time>2022-02-03T10:12:43.000Z</time>
      </trkpt>
      <trkpt lat="44.43233" lon="4.57761">
        <ele>339.76</ele>
        <time>2022-02-03T10:13:01.488Z</time>
      </trkpt>
      <trkpt lat="44.43234" lon="4.57731">
        <ele>339.95</ele>
        <time>2022-02-03T10:13:28.000Z</time>
      </trkpt>
      <trkpt lat="44.43239" lon="4.577">
        <ele>339.98</ele>
        <time>2022-02-03T10:13:49.309Z</time>
      </trkpt>
      <trkpt lat="44.43226" lon="4.57666">
        <ele>340.08</ele>
        <time>2022-02-03T10:14:59.209Z</time>
      </trkpt>
      <trkpt lat="44.43223" lon="4.57632">
        <ele>340.5</ele>
        <time>2022-02-03T10:15:17.430Z</time>
      </trkpt>
      <trkpt lat="44.4322" lon="4.5762">
        <ele>340.67</ele>
        <time>2022-02-03T10:15:27.030Z</time>
      </trkpt>
      <trkpt lat="44.4321" lon="4.57594">
        <ele>340.97</ele>
        <time>2022-02-03T10:15:45.336Z</time>
      </trkpt>
      <trkpt lat="44.43189" lon="4.57595">
        <ele>340.85</ele>
        <time>2022-02-03T10:16:04.631Z</time>
      </trkpt>
      <trkpt lat="44.43168" lon="4.57592">
        <ele>340.89</ele>
        <time>2022-02-03T10:16:25.645Z</time>
      </trkpt>
      <trkpt lat="44.4316" lon="4.57555">
        <ele>341.39</ele>
        <time>2022-02-03T10:16:45.691Z</time>
      </trkpt>
      <trkpt lat="44.43149" lon="4.57524">
        <ele>341.75</ele>
        <time>2022-02-03T10:17:05.000Z</time>
      </trkpt>
      <trkpt lat="44.43142" lon="4.57509">
        <ele>341.83</ele>
        <time>2022-02-03T10:17:14.613Z</time>
      </trkpt>
      <trkpt lat="44.43137" lon="4.57482">
        <ele>341.91</ele>
        <time>2022-02-03T10:17:33.535Z</time>
      </trkpt>
      <trkpt lat="44.43146" lon="4.5745">
        <ele>342.19</ele>
        <time>2022-02-03T10:17:52.153Z</time>
      </trkpt>
      <trkpt lat="44.43156" lon="4.57421">
        <ele>342.71</ele>
        <time>2022-02-03T10:18:10.235Z</time>
      </trkpt>
      <trkpt lat="44.43161" lon="4.57396">
        <ele>343.32</ele>
        <time>2022-02-03T10:18:29.154Z</time>
      </trkpt>
      <trkpt lat="44.43145" lon="4.57375">
        <ele>343.46</ele>
        <time>2022-02-03T10:18:48.155Z</time>
      </trkpt>
      <trkpt lat="44.43142" lon="4.57361">
        <ele>343.75</ele>
        <time>2022-02-03T10:18:57.548Z</time>
      </trkpt>
      <trkpt lat="44.43135" lon="4.57329">
        <ele>344.39</ele>
        <time>2022-02-03T10:19:16.547Z</time>
      </trkpt>
      <trkpt lat="44.4313" lon="4.57294">
        <ele>345.16</ele>
        <time>2022-02-03T10:19:35.035Z</time>
      </trkpt>
      <trkpt lat="44.43117" lon="4.57271">
        <ele>345.17</ele>
        <time>2022-02-03T10:19:53.686Z</time>
      </trkpt>
      <trkpt lat="44.43101" lon="4.57247">
        <ele>344.69</ele>
        <time>2022-02-03T10:20:13.000Z</time>
      </trkpt>
      <trkpt lat="44.4309" lon="4.57216">
        <ele>344.08</ele>
        <time>2022-02-03T10:20:31.410Z</time>
      </trkpt>
      <trkpt lat="44.43089" lon="4.57197">
        <ele>343.81</ele>
        <time>2022-02-03T10:20:40.530Z</time>
      </trkpt>
      <trkpt lat="44.43087" lon="4.57166">
        <ele>343.11</ele>
        <time>2022-02-03T10:20:58.989Z</time>
      </trkpt>
      <trkpt lat="44.43085" lon="4.57131">
        <ele>341.74</ele>
        <time>2022-02-03T10:21:17.331Z</time>
      </trkpt>
      <trkpt lat="44.43086" lon="4.57102">
        <ele>340.64</ele>
        <time>2022-02-03T10:21:36.000Z</time>
      </trkpt>
      <trkpt lat="44.43108" lon="4.57091">
        <ele>341.38</ele>
        <time>2022-02-03T10:21:55.288Z</time>
      </trkpt>
      <trkpt lat="44.43127" lon="4.57073">
        <ele>342.11</ele>
        <time>2022-02-03T10:22:13.639Z</time>
      </trkpt>
      <trkpt lat="44.43136" lon="4.57062">
        <ele>342.37</ele>
        <time>2022-02-03T10:22:22.976Z</time>
      </trkpt>
      <trkpt lat="44.4315" lon="4.57026">
        <ele>342.58</ele>
        <time>2022-02-03T10:22:41.594Z</time>
      </trkpt>
      <trkpt lat="44.43147" lon="4.56998">
        <ele>342.42</ele>
        <time>2022-02-03T10:23:00.588Z</time>
      </trkpt>
      <trkpt lat="44.43153" lon="4.56969">
        <ele>342.89</ele>
        <time>2022-02-03T10:23:20.811Z</time>
      </trkpt>
      <trkpt lat="44.43169" lon="4.56946">
        <ele>343.69</ele>
        <time>2022-02-03T10:23:39.251Z</time>
      </trkpt>
      <trkpt lat="44.43186" lon="4.56923">
        <ele>344.21</ele>
        <time>2022-02-03T10:23:58.390Z</time>
      </trkpt>
      <trkpt lat="44.43192" lon="4.56911">
        <ele>344.25</ele>
        <time>2022-02-03T10:24:07.819Z</time>
      </trkpt>
      <trkpt lat="44.43187" lon="4.56877">
        <ele>344.18</ele>
        <time>2022-02-03T10:24:26.291Z</time>
      </trkpt>
      <trkpt lat="44.43181" lon="4.56845">
        <ele>344.05</ele>
        <time>2022-02-03T10:24:45.999Z</time>
      </trkpt>
      <trkpt lat="44.43176" lon="4.56809">
        <ele>343.78</ele>
        <time>2022-02-03T10:25:04.572Z</time>
      </trkpt>
      <trkpt lat="44.43171" lon="4.5678">
        <ele>343.41</ele>
        <time>2022-02-03T10:25:32.551Z</time>
      </trkpt>
      <trkpt lat="44.43171" lon="4.56765">
        <ele>343.21</ele>
        <time>2022-02-03T10:25:42.672Z</time>
      </trkpt>
      <trkpt lat="44.43165" lon="4.56739">
        <ele>342.86</ele>
        <time>2022-02-03T10:26:01.294Z</time>
      </trkpt>
      <trkpt lat="44.43158" lon="4.56708">
        <ele>342.41</ele>
        <time>2022-02-03T10:26:23.555Z</time>
      </trkpt>
      <trkpt lat="44.43153" lon="4.56675">
        <ele>341.94</ele>
        <time>2022-02-03T10:26:42.337Z</time>
      </trkpt>
      <trkpt lat="44.43141" lon="4.56656">
        <ele>341.51</ele>
        <time>2022-02-03T10:27:02.276Z</time>
      </trkpt>
      <trkpt lat="44.43122" lon="4.56648">
        <ele>341.13</ele>
        <time>2022-02-03T10:27:27.999Z</time>
      </trkpt>
      <trkpt lat="44.43111" lon="4.56647">
        <ele>340.99</ele>
        <time>2022-02-03T10:27:39.397Z</time>
      </trkpt>
      <trkpt lat="44.43087" lon="4.56636">
        <ele>340.67</ele>
        <time>2022-02-03T10:27:57.873Z</time>
      </trkpt>
      <trkpt lat="44.43065" lon="4.56627">
        <ele>340.81</ele>
        <time>2022-02-03T10:28:16.999Z</time>
      </trkpt>
      <trkpt lat="44.43042" lon="4.5662">
        <ele>341.46</ele>
        <time>2022-02-03T10:28:36.196Z</time>
      </trkpt>
      <trkpt lat="44.4302" lon="4.56613">
        <ele>342.27</ele>
        <time>2022-02-03T10:28:55.516Z</time>
      </trkpt>
      <trkpt lat="44.42994" lon="4.56617">
        <ele>342.57</ele>
        <time>2022-02-03T10:29:14.854Z</time>
      </trkpt>
      <trkpt lat="44.42981" lon="4.56615">
        <ele>342.64</ele>
        <time>2022-02-03T10:29:24.238Z</time>
      </trkpt>
      <trkpt lat="44.42968" lon="4.56587">
        <ele>343.1</ele>
        <time>2022-02-03T10:29:42.755Z</time>
      </trkpt>
      <trkpt lat="44.42965" lon="4.56556">
        <ele>342.57</ele>
        <time>2022-02-03T10:30:01.417Z</time>
      </trkpt>
      <trkpt lat="44.42961" lon="4.5653">
        <ele>341.79</ele>
        <time>2022-02-03T10:30:19.836Z</time>
      </trkpt>
      <trkpt lat="44.42948" lon="4.56492">
        <ele>341.21</ele>
        <time>2022-02-03T10:30:38.216Z</time>
      </trkpt>
      <trkpt lat="44.42931" lon="4.56466">
        <ele>340.98</ele>
        <time>2022-02-03T10:30:57.015Z</time>
      </trkpt>
      <trkpt lat="44.42916" lon="4.56464">
        <ele>340.97</ele>
        <time>2022-02-03T10:31:06.376Z</time>
      </trkpt>
      <trkpt lat="44.42893" lon="4.56463">
        <ele>339.88</ele>
        <time>2022-02-03T10:31:25.438Z</time>
      </trkpt>
      <trkpt lat="44.42881" lon="4.56431">
        <ele>337.9</ele>
        <time>2022-02-03T10:31:43.915Z</time>
      </trkpt>
      <trkpt lat="44.42866" lon="4.56404">
        <ele>336.11</ele>
        <time>2022-02-03T10:32:02.637Z</time>
      </trkpt>
      <trkpt lat="44.42851" lon="4.56376">
        <ele>334.58</ele>
        <time>2022-02-03T10:32:22.234Z</time>
      </trkpt>
      <trkpt lat="44.42831" lon="4.56354">
        <ele>333.97</ele>
        <time>2022-02-03T10:32:40.841Z</time>
      </trkpt>
      <trkpt lat="44.42821" lon="4.56347">
        <ele>334.05</ele>
        <time>2022-02-03T10:32:50.414Z</time>
      </trkpt>
      <trkpt lat="44.428" lon="4.56333">
        <ele>334.58</ele>
        <time>2022-02-03T10:33:08.572Z</time>
      </trkpt>
      <trkpt lat="44.42781" lon="4.56317">
        <ele>335.36</ele>
        <time>2022-02-03T10:33:27.235Z</time>
      </trkpt>
      <trkpt lat="44.4276" lon="4.56299">
        <ele>336.15</ele>
        <time>2022-02-03T10:33:45.557Z</time>
      </trkpt>
      <trkpt lat="44.42738" lon="4.56279">
        <ele>336.76</ele>
        <time>2022-02-03T10:34:04.056Z</time>
      </trkpt>
      <trkpt lat="44.42714" lon="4.56281">
        <ele>337</ele>
        <time>2022-02-03T10:34:23.000Z</time>
      </trkpt>
      <trkpt lat="44.42698" lon="4.56281">
        <ele>337.19</ele>
        <time>2022-02-03T10:34:32.617Z</time>
      </trkpt>
      <trkpt lat="44.42674" lon="4.5628">
        <ele>337.72</ele>
        <time>2022-02-03T10:34:51.823Z</time>
      </trkpt>
      <trkpt lat="44.42648" lon="4.56276">
        <ele>338.79</ele>
        <time>2022-02-03T10:35:10.674Z</time>
      </trkpt>
      <trkpt lat="44.42629" lon="4.56255">
        <ele>339.72</ele>
        <time>2022-02-03T10:35:31.000Z</time>
      </trkpt>
      <trkpt lat="44.42609" lon="4.56232">
        <ele>340.71</ele>
        <time>2022-02-03T10:35:50.817Z</time>
      </trkpt>
      <trkpt lat="44.42588" lon="4.56241">
        <ele>341.79</ele>
        <time>2022-02-03T10:36:12.537Z</time>
      </trkpt>
      <trkpt lat="44.42577" lon="4.56244">
        <ele>342.2</ele>
        <time>2022-02-03T10:36:22.000Z</time>
      </trkpt>
      <trkpt lat="44.42554" lon="4.56239">
        <ele>342.97</ele>
        <time>2022-02-03T10:36:40.589Z</time>
      </trkpt>
      <trkpt lat="44.42528" lon="4.56247">
        <ele>343.71</ele>
        <time>2022-02-03T10:37:00.557Z</time>
      </trkpt>
      <trkpt lat="44.42507" lon="4.56259">
        <ele>343.93</ele>
        <time>2022-02-03T10:37:22.000Z</time>
      </trkpt>
      <trkpt lat="44.42485" lon="4.56272">
        <ele>343.68</ele>
        <time>2022-02-03T10:37:40.376Z</time>
      </trkpt>
      <trkpt lat="44.42463" lon="4.56284">
        <ele>343.07</ele>
        <time>2022-02-03T10:37:58.873Z</time>
      </trkpt>
      <trkpt lat="44.42451" lon="4.56289">
        <ele>342.69</ele>
        <time>2022-02-03T10:38:07.996Z</time>
      </trkpt>
      <trkpt lat="44.42429" lon="4.56302">
        <ele>341.84</ele>
        <time>2022-02-03T10:38:26.337Z</time>
      </trkpt>
      <trkpt lat="44.42408" lon="4.56312">
        <ele>340.98</ele>
        <time>2022-02-03T10:38:44.834Z</time>
      </trkpt>
      <trkpt lat="44.4239" lon="4.56322">
        <ele>340.1</ele>
        <time>2022-02-03T10:39:11.335Z</time>
      </trkpt>
      <trkpt lat="44.42367" lon="4.56332">
        <ele>338.82</ele>
        <time>2022-02-03T10:39:29.755Z</time>
      </trkpt>
      <trkpt lat="44.42356" lon="4.56339">
        <ele>338.12</ele>
        <time>2022-02-03T10:39:39.175Z</time>
      </trkpt>
      <trkpt lat="44.42334" lon="4.56351">
        <ele>336.61</ele>
        <time>2022-02-03T10:39:57.715Z</time>
      </trkpt>
      <trkpt lat="44.42318" lon="4.56367">
        <ele>335.23</ele>
        <time>2022-02-03T10:40:17.355Z</time>
      </trkpt>
      <trkpt lat="44.42304" lon="4.56395">
        <ele>333.56</ele>
        <time>2022-02-03T10:40:35.872Z</time>
      </trkpt>
      <trkpt lat="44.42292" lon="4.56424">
        <ele>332.22</ele>
        <time>2022-02-03T10:40:54.754Z</time>
      </trkpt>
      <trkpt lat="44.42283" lon="4.56454">
        <ele>331.26</ele>
        <time>2022-02-03T10:41:13.572Z</time>
      </trkpt>
      <trkpt lat="44.42275" lon="4.56469">
        <ele>330.69</ele>
        <time>2022-02-03T10:41:23.999Z</time>
      </trkpt>
      <trkpt lat="44.42261" lon="4.56493">
        <ele>329.7</ele>
        <time>2022-02-03T10:41:42.849Z</time>
      </trkpt>
      <trkpt lat="44.42245" lon="4.56506">
        <ele>328.67</ele>
        <time>2022-02-03T10:42:05.809Z</time>
      </trkpt>
      <trkpt lat="44.42219" lon="4.56503">
        <ele>327.4</ele>
        <time>2022-02-03T10:42:24.493Z</time>
      </trkpt>
      <trkpt lat="44.42195" lon="4.5651">
        <ele>326.1</ele>
        <time>2022-02-03T10:42:46.171Z</time>
      </trkpt>
      <trkpt lat="44.4217" lon="4.56485">
        <ele>325.54</ele>
        <time>2022-02-03T10:43:04.871Z</time>
      </trkpt>
      <trkpt lat="44.42157" lon="4.56475">
        <ele>325.3</ele>
        <time>2022-02-03T10:43:14.335Z</time>
      </trkpt>
      <trkpt lat="44.42132" lon="4.56477">
        <ele>324.02</ele>
        <time>2022-02-03T10:43:33.391Z</time>
      </trkpt>
      <trkpt lat="44.42108" lon="4.56471">
        <ele>322.99</ele>
        <time>2022-02-03T10:43:51.872Z</time>
      </trkpt>
      <trkpt lat="44.42089" lon="4.56476">
        <ele>321.84</ele>
        <time>2022-02-03T10:44:10.592Z</time>
      </trkpt>
      <trkpt lat="44.42067" lon="4.56472">
        <ele>320.89</ele>
        <time>2022-02-03T10:44:29.352Z</time>
      </trkpt>
      <trkpt lat="44.42047" lon="4.56478">
        <ele>319.77</ele>
        <time>2022-02-03T10:44:51.616Z</time>
      </trkpt>
      <trkpt lat="44.42037" lon="4.5648">
        <ele>319.26</ele>
        <time>2022-02-03T10:45:01.593Z</time>
      </trkpt>
      <trkpt lat="44.4201" lon="4.56492">
        <ele>317.05</ele>
        <time>2022-02-03T10:45:42.696Z</time>
      </trkpt>
      <trkpt lat="44.41992" lon="4.56507">
        <ele>315.15</ele>
        <time>2022-02-03T10:46:05.534Z</time>
      </trkpt>
      <trkpt lat="44.41961" lon="4.56523">
        <ele>312.17</ele>
        <time>2022-02-03T10:46:25.036Z</time>
      </trkpt>
      <trkpt lat="44.41944" lon="4.56541">
        <ele>310.28</ele>
        <time>2022-02-03T10:46:43.696Z</time>
      </trkpt>
      <trkpt lat="44.41923" lon="4.56551">
        <ele>307.08</ele>
        <time>2022-02-03T10:47:02.378Z</time>
      </trkpt>
      <trkpt lat="44.41913" lon="4.56557">
        <ele>305.26</ele>
        <time>2022-02-03T10:47:11.718Z</time>
      </trkpt>
      <trkpt lat="44.41895" lon="4.56565">
        <ele>300.42</ele>
        <time>2022-02-03T10:47:31.158Z</time>
      </trkpt>
      <trkpt lat="44.41873" lon="4.56564">
        <ele>292.52</ele>
        <time>2022-02-03T10:47:49.976Z</time>
      </trkpt>
      <trkpt lat="44.41866" lon="4.56551">
        <ele>288.96</ele>
        <time>2022-02-03T10:48:26.873Z</time>
      </trkpt>
      <trkpt lat="44.4188" lon="4.56532">
        <ele>293.4</ele>
        <time>2022-02-03T10:48:47.999Z</time>
      </trkpt>
      <trkpt lat="44.41861" lon="4.56523">
        <ele>285.85</ele>
        <time>2022-02-03T10:49:16.999Z</time>
      </trkpt>
      <trkpt lat="44.41852" lon="4.56525">
        <ele>282.45</ele>
        <time>2022-02-03T10:49:28.341Z</time>
      </trkpt>
      <trkpt lat="44.41833" lon="4.56528">
        <ele>277.02</ele>
        <time>2022-02-03T10:49:54.556Z</time>
      </trkpt>
      <trkpt lat="44.41809" lon="4.5652">
        <ele>271.08</ele>
        <time>2022-02-03T10:50:12.636Z</time>
      </trkpt>
      <trkpt lat="44.41797" lon="4.56519">
        <ele>268.73</ele>
        <time>2022-02-03T11:24:45.491Z</time>
      </trkpt>
      <trkpt lat="44.41782" lon="4.56515">
        <ele>266.52</ele>
        <time>2022-02-03T11:25:28.730Z</time>
      </trkpt>
      <trkpt lat="44.4178" lon="4.5649">
        <ele>267.12</ele>
        <time>2022-02-03T11:26:06.999Z</time>
      </trkpt>
      <trkpt lat="44.41775" lon="4.56475">
        <ele>267.31</ele>
        <time>2022-02-03T11:26:16.469Z</time>
      </trkpt>
      <trkpt lat="44.41763" lon="4.56475">
        <ele>266.87</ele>
        <time>2022-02-03T11:27:04.000Z</time>
      </trkpt>
      <trkpt lat="44.41752" lon="4.56509">
        <ele>266.4</ele>
        <time>2022-02-03T11:27:28.873Z</time>
      </trkpt>
      <trkpt lat="44.41739" lon="4.56491">
        <ele>269.6</ele>
        <time>2022-02-03T11:27:53.000Z</time>
      </trkpt>
      <trkpt lat="44.41726" lon="4.56487">
        <ele>274.16</ele>
        <time>2022-02-03T11:28:27.351Z</time>
      </trkpt>
      <trkpt lat="44.4172" lon="4.56498">
        <ele>275.99</ele>
        <time>2022-02-03T11:28:37.000Z</time>
      </trkpt>
      <trkpt lat="44.41709" lon="4.56484">
        <ele>281.91</ele>
        <time>2022-02-03T11:29:00.413Z</time>
      </trkpt>
      <trkpt lat="44.41699" lon="4.56461">
        <ele>287.46</ele>
        <time>2022-02-03T11:29:36.000Z</time>
      </trkpt>
      <trkpt lat="44.41682" lon="4.56484">
        <ele>294.36</ele>
        <time>2022-02-03T11:29:55.393Z</time>
      </trkpt>
      <trkpt lat="44.41665" lon="4.5649">
        <ele>299.46</ele>
        <time>2022-02-03T11:30:16.571Z</time>
      </trkpt>
      <trkpt lat="44.41647" lon="4.56494">
        <ele>303.07</ele>
        <time>2022-02-03T11:30:36.175Z</time>
      </trkpt>
      <trkpt lat="44.41637" lon="4.56486">
        <ele>305.53</ele>
        <time>2022-02-03T11:30:45.374Z</time>
      </trkpt>
      <trkpt lat="44.41622" lon="4.56469">
        <ele>308.97</ele>
        <time>2022-02-03T11:31:04.689Z</time>
      </trkpt>
      <trkpt lat="44.41604" lon="4.56447">
        <ele>312.81</ele>
        <time>2022-02-03T11:31:27.196Z</time>
      </trkpt>
      <trkpt lat="44.41592" lon="4.56422">
        <ele>315.73</ele>
        <time>2022-02-03T11:31:51.741Z</time>
      </trkpt>
      <trkpt lat="44.41575" lon="4.56399">
        <ele>318.63</ele>
        <time>2022-02-03T11:32:13.000Z</time>
      </trkpt>
      <trkpt lat="44.41556" lon="4.56391">
        <ele>320.51</ele>
        <time>2022-02-03T11:32:39.016Z</time>
      </trkpt>
      <trkpt lat="44.41547" lon="4.56389">
        <ele>321.05</ele>
        <time>2022-02-03T11:32:49.375Z</time>
      </trkpt>
      <trkpt lat="44.4152" lon="4.56377">
        <ele>322.24</ele>
        <time>2022-02-03T11:33:07.994Z</time>
      </trkpt>
      <trkpt lat="44.415" lon="4.56379">
        <ele>322.89</ele>
        <time>2022-02-03T11:33:27.000Z</time>
      </trkpt>
      <trkpt lat="44.4148" lon="4.56381">
        <ele>323.58</ele>
        <time>2022-02-03T11:33:47.458Z</time>
      </trkpt>
      <trkpt lat="44.41462" lon="4.56382">
        <ele>324.08</ele>
        <time>2022-02-03T11:34:07.148Z</time>
      </trkpt>
      <trkpt lat="44.41442" lon="4.56387">
        <ele>324.52</ele>
        <time>2022-02-03T11:34:26.006Z</time>
      </trkpt>
      <trkpt lat="44.41432" lon="4.56378">
        <ele>325.03</ele>
        <time>2022-02-03T11:34:35.448Z</time>
      </trkpt>
      <trkpt lat="44.41413" lon="4.56377">
        <ele>325.79</ele>
        <time>2022-02-03T11:34:56.000Z</time>
      </trkpt>
      <trkpt lat="44.414" lon="4.56379">
        <ele>326.44</ele>
        <time>2022-02-03T11:35:32.000Z</time>
      </trkpt>
      <trkpt lat="44.41381" lon="4.56364">
        <ele>327.61</ele>
        <time>2022-02-03T11:35:51.000Z</time>
      </trkpt>
      <trkpt lat="44.41401" lon="4.56381">
        <ele>326.35</ele>
        <time>2022-02-03T11:36:16.609Z</time>
      </trkpt>
      <trkpt lat="44.41408" lon="4.5641">
        <ele>325.53</ele>
        <time>2022-02-03T11:36:36.999Z</time>
      </trkpt>
      <trkpt lat="44.41404" lon="4.56397">
        <ele>325.93</ele>
        <time>2022-02-03T11:36:53.999Z</time>
      </trkpt>
      <trkpt lat="44.41388" lon="4.56381">
        <ele>327.11</ele>
        <time>2022-02-03T11:37:15.690Z</time>
      </trkpt>
      <trkpt lat="44.41384" lon="4.56407">
        <ele>327.22</ele>
        <time>2022-02-03T11:37:41.999Z</time>
      </trkpt>
      <trkpt lat="44.41372" lon="4.56425">
        <ele>328.2</ele>
        <time>2022-02-03T11:38:06.999Z</time>
      </trkpt>
      <trkpt lat="44.41363" lon="4.56448">
        <ele>328.99</ele>
        <time>2022-02-03T11:38:34.750Z</time>
      </trkpt>
      <trkpt lat="44.41356" lon="4.56473">
        <ele>329.58</ele>
        <time>2022-02-03T11:39:07.351Z</time>
      </trkpt>
      <trkpt lat="44.41353" lon="4.56485">
        <ele>329.76</ele>
        <time>2022-02-03T11:39:16.999Z</time>
      </trkpt>
      <trkpt lat="44.41342" lon="4.56507">
        <ele>330.47</ele>
        <time>2022-02-03T11:39:45.451Z</time>
      </trkpt>
      <trkpt lat="44.41335" lon="4.56533">
        <ele>330.88</ele>
        <time>2022-02-03T11:40:15.999Z</time>
      </trkpt>
      <trkpt lat="44.41326" lon="4.56556">
        <ele>331.46</ele>
        <time>2022-02-03T11:41:21.999Z</time>
      </trkpt>
      <trkpt lat="44.41312" lon="4.56584">
        <ele>332.18</ele>
        <time>2022-02-03T11:41:52.825Z</time>
      </trkpt>
      <trkpt lat="44.4131" lon="4.56623">
        <ele>332.08</ele>
        <time>2022-02-03T11:43:26.410Z</time>
      </trkpt>
      <trkpt lat="44.41306" lon="4.56639">
        <ele>332.24</ele>
        <time>2022-02-03T11:43:35.999Z</time>
      </trkpt>
      <trkpt lat="44.41297" lon="4.56672">
        <ele>332.76</ele>
        <time>2022-02-03T11:43:55.411Z</time>
      </trkpt>
      <trkpt lat="44.41289" lon="4.56697">
        <ele>333.34</ele>
        <time>2022-02-03T11:44:15.493Z</time>
      </trkpt>
      <trkpt lat="44.41279" lon="4.56722">
        <ele>333.91</ele>
        <time>2022-02-03T11:44:34.695Z</time>
      </trkpt>
      <trkpt lat="44.4127" lon="4.56749">
        <ele>334.43</ele>
        <time>2022-02-03T11:44:55.313Z</time>
      </trkpt>
      <trkpt lat="44.41261" lon="4.56776">
        <ele>334.91</ele>
        <time>2022-02-03T11:45:15.835Z</time>
      </trkpt>
      <trkpt lat="44.4126" lon="4.56788">
        <ele>335.08</ele>
        <time>2022-02-03T11:45:26.452Z</time>
      </trkpt>
      <trkpt lat="44.41257" lon="4.56813">
        <ele>335.49</ele>
        <time>2022-02-03T11:45:47.274Z</time>
      </trkpt>
      <trkpt lat="44.41249" lon="4.5684">
        <ele>336.16</ele>
        <time>2022-02-03T11:46:30.554Z</time>
      </trkpt>
      <trkpt lat="44.41239" lon="4.56872">
        <ele>337.21</ele>
        <time>2022-02-03T11:46:48.833Z</time>
      </trkpt>
      <trkpt lat="44.41239" lon="4.56901">
        <ele>337.89</ele>
        <time>2022-02-03T11:49:29.377Z</time>
      </trkpt>
      <trkpt lat="44.41235" lon="4.5692">
        <ele>338.21</ele>
        <time>2022-02-03T11:49:39.000Z</time>
      </trkpt>
      <trkpt lat="44.41233" lon="4.56956">
        <ele>338.25</ele>
        <time>2022-02-03T11:49:58.000Z</time>
      </trkpt>
      <trkpt lat="44.41232" lon="4.56987">
        <ele>338.07</ele>
        <time>2022-02-03T11:50:17.825Z</time>
      </trkpt>
      <trkpt lat="44.41231" lon="4.57024">
        <ele>337.91</ele>
        <time>2022-02-03T11:50:37.076Z</time>
      </trkpt>
      <trkpt lat="44.41225" lon="4.5705">
        <ele>337.7</ele>
        <time>2022-02-03T11:50:56.072Z</time>
      </trkpt>
      <trkpt lat="44.41223" lon="4.57078">
        <ele>337.38</ele>
        <time>2022-02-03T11:51:17.089Z</time>
      </trkpt>
      <trkpt lat="44.41225" lon="4.57096">
        <ele>337.18</ele>
        <time>2022-02-03T11:51:26.471Z</time>
      </trkpt>
      <trkpt lat="44.41222" lon="4.57131">
        <ele>336.42</ele>
        <time>2022-02-03T11:51:45.212Z</time>
      </trkpt>
      <trkpt lat="44.4122" lon="4.57166">
        <ele>335.76</ele>
        <time>2022-02-03T11:52:09.428Z</time>
      </trkpt>
      <trkpt lat="44.41218" lon="4.57202">
        <ele>335.43</ele>
        <time>2022-02-03T11:52:27.834Z</time>
      </trkpt>
      <trkpt lat="44.41214" lon="4.57236">
        <ele>335.15</ele>
        <time>2022-02-03T11:52:51.000Z</time>
      </trkpt>
      <trkpt lat="44.41212" lon="4.57268">
        <ele>335.04</ele>
        <time>2022-02-03T11:53:10.677Z</time>
      </trkpt>
      <trkpt lat="44.41211" lon="4.57281">
        <ele>335</ele>
        <time>2022-02-03T11:53:23.197Z</time>
      </trkpt>
      <trkpt lat="44.41206" lon="4.57311">
        <ele>334.81</ele>
        <time>2022-02-03T11:53:41.764Z</time>
      </trkpt>
      <trkpt lat="44.41203" lon="4.57346">
        <ele>334.64</ele>
        <time>2022-02-03T11:54:02.000Z</time>
      </trkpt>
      <trkpt lat="44.41201" lon="4.57378">
        <ele>334.43</ele>
        <time>2022-02-03T11:54:32.170Z</time>
      </trkpt>
      <trkpt lat="44.41199" lon="4.57413">
        <ele>334.12</ele>
        <time>2022-02-03T11:54:53.409Z</time>
      </trkpt>
      <trkpt lat="44.41195" lon="4.57462">
        <ele>333.17</ele>
        <time>2022-02-03T11:55:11.999Z</time>
      </trkpt>
      <trkpt lat="44.41195" lon="4.57485">
        <ele>332.77</ele>
        <time>2022-02-03T11:55:21.572Z</time>
      </trkpt>
      <trkpt lat="44.4119" lon="4.57517">
        <ele>332.11</ele>
        <time>2022-02-03T11:55:39.851Z</time>
      </trkpt>
      <trkpt lat="44.41191" lon="4.57547">
        <ele>331.61</ele>
        <time>2022-02-03T11:55:58.510Z</time>
      </trkpt>
      <trkpt lat="44.41186" lon="4.57576">
        <ele>331.15</ele>
        <time>2022-02-03T11:56:18.669Z</time>
      </trkpt>
      <trkpt lat="44.41182" lon="4.57612">
        <ele>331.19</ele>
        <time>2022-02-03T11:56:37.550Z</time>
      </trkpt>
      <trkpt lat="44.4118" lon="4.57642">
        <ele>331.56</ele>
        <time>2022-02-03T11:56:56.811Z</time>
      </trkpt>
      <trkpt lat="44.41178" lon="4.57657">
        <ele>331.72</ele>
        <time>2022-02-03T11:57:06.092Z</time>
      </trkpt>
      <trkpt lat="44.41175" lon="4.57691">
        <ele>331.66</ele>
        <time>2022-02-03T11:57:26.031Z</time>
      </trkpt>
      <trkpt lat="44.41173" lon="4.57725">
        <ele>331.23</ele>
        <time>2022-02-03T11:57:44.591Z</time>
      </trkpt>
      <trkpt lat="44.41171" lon="4.57759">
        <ele>330.64</ele>
        <time>2022-02-03T11:58:04.394Z</time>
      </trkpt>
      <trkpt lat="44.41169" lon="4.5779">
        <ele>329.86</ele>
        <time>2022-02-03T11:58:22.755Z</time>
      </trkpt>
      <trkpt lat="44.41162" lon="4.5782">
        <ele>329.31</ele>
        <time>2022-02-03T11:58:41.375Z</time>
      </trkpt>
      <trkpt lat="44.41165" lon="4.57837">
        <ele>329.04</ele>
        <time>2022-02-03T11:58:50.533Z</time>
      </trkpt>
      <trkpt lat="44.41163" lon="4.57866">
        <ele>329.19</ele>
        <time>2022-02-03T11:59:10.816Z</time>
      </trkpt>
      <trkpt lat="44.4116" lon="4.57902">
        <ele>329.91</ele>
        <time>2022-02-03T11:59:29.339Z</time>
      </trkpt>
      <trkpt lat="44.41156" lon="4.57931">
        <ele>330.79</ele>
        <time>2022-02-03T11:59:48.643Z</time>
      </trkpt>
      <trkpt lat="44.41153" lon="4.57959">
        <ele>331.86</ele>
        <time>2022-02-03T12:00:07.038Z</time>
      </trkpt>
      <trkpt lat="44.4115" lon="4.57988">
        <ele>333.08</ele>
        <time>2022-02-03T12:00:26.616Z</time>
      </trkpt>
      <trkpt lat="44.41151" lon="4.58004">
        <ele>333.7</ele>
        <time>2022-02-03T12:00:35.756Z</time>
      </trkpt>
      <trkpt lat="44.4115" lon="4.58036">
        <ele>335.22</ele>
        <time>2022-02-03T12:00:54.475Z</time>
      </trkpt>
      <trkpt lat="44.41148" lon="4.58065">
        <ele>336.75</ele>
        <time>2022-02-03T12:01:12.656Z</time>
      </trkpt>
      <trkpt lat="44.41146" lon="4.58097">
        <ele>338.38</ele>
        <time>2022-02-03T12:01:31.595Z</time>
      </trkpt>
      <trkpt lat="44.4114" lon="4.58134">
        <ele>340.52</ele>
        <time>2022-02-03T12:01:53.593Z</time>
      </trkpt>
      <trkpt lat="44.41139" lon="4.5817">
        <ele>342.51</ele>
        <time>2022-02-03T12:02:12.999Z</time>
      </trkpt>
      <trkpt lat="44.41138" lon="4.58184">
        <ele>343.33</ele>
        <time>2022-02-03T12:02:22.176Z</time>
      </trkpt>
      <trkpt lat="44.41136" lon="4.58213">
        <ele>345.03</ele>
        <time>2022-02-03T12:02:42.999Z</time>
      </trkpt>
      <trkpt lat="44.41134" lon="4.58242">
        <ele>346.75</ele>
        <time>2022-02-03T12:03:01.658Z</time>
      </trkpt>
      <trkpt lat="44.41135" lon="4.58283">
        <ele>348.97</ele>
        <time>2022-02-03T12:04:01.828Z</time>
      </trkpt>
      <trkpt lat="44.41138" lon="4.5832">
        <ele>350.74</ele>
        <time>2022-02-03T12:04:47.877Z</time>
      </trkpt>
      <trkpt lat="44.41134" lon="4.58345">
        <ele>351.82</ele>
        <time>2022-02-03T12:04:57.015Z</time>
      </trkpt>
      <trkpt lat="44.41126" lon="4.58392">
        <ele>353.26</ele>
        <time>2022-02-03T12:05:15.854Z</time>
      </trkpt>
      <trkpt lat="44.4112" lon="4.58424">
        <ele>353.36</ele>
        <time>2022-02-03T12:05:35.714Z</time>
      </trkpt>
      <trkpt lat="44.41112" lon="4.58457">
        <ele>352.4</ele>
        <time>2022-02-03T12:06:11.835Z</time>
      </trkpt>
      <trkpt lat="44.41107" lon="4.58495">
        <ele>350.29</ele>
        <time>2022-02-03T12:06:30.218Z</time>
      </trkpt>
      <trkpt lat="44.41101" lon="4.5853">
        <ele>347.89</ele>
        <time>2022-02-03T12:06:50.113Z</time>
      </trkpt>
      <trkpt lat="44.41097" lon="4.58542">
        <ele>347.06</ele>
        <time>2022-02-03T12:07:04.478Z</time>
      </trkpt>
      <trkpt lat="44.41087" lon="4.5858">
        <ele>344.09</ele>
        <time>2022-02-03T12:07:22.895Z</time>
      </trkpt>
      <trkpt lat="44.41085" lon="4.58615">
        <ele>340.62</ele>
        <time>2022-02-03T12:07:41.743Z</time>
      </trkpt>
      <trkpt lat="44.41084" lon="4.58644">
        <ele>337.61</ele>
        <time>2022-02-03T12:08:07.579Z</time>
      </trkpt>
      <trkpt lat="44.41083" lon="4.58688">
        <ele>335.37</ele>
        <time>2022-02-03T12:08:26.300Z</time>
      </trkpt>
      <trkpt lat="44.41077" lon="4.58727">
        <ele>335.9</ele>
        <time>2022-02-03T12:08:46.000Z</time>
      </trkpt>
      <trkpt lat="44.41074" lon="4.58739">
        <ele>336.26</ele>
        <time>2022-02-03T12:09:10.846Z</time>
      </trkpt>
      <trkpt lat="44.41061" lon="4.58787">
        <ele>337.93</ele>
        <time>2022-02-03T12:09:29.740Z</time>
      </trkpt>
      <trkpt lat="44.41051" lon="4.58832">
        <ele>339.5</ele>
        <time>2022-02-03T12:09:48.000Z</time>
      </trkpt>
      <trkpt lat="44.41044" lon="4.58877">
        <ele>340.8</ele>
        <time>2022-02-03T12:10:06.740Z</time>
      </trkpt>
      <trkpt lat="44.41045" lon="4.58932">
        <ele>341.48</ele>
        <time>2022-02-03T12:10:25.746Z</time>
      </trkpt>
      <trkpt lat="44.41051" lon="4.58976">
        <ele>340.94</ele>
        <time>2022-02-03T12:10:44.019Z</time>
      </trkpt>
      <trkpt lat="44.41054" lon="4.58991">
        <ele>340.62</ele>
        <time>2022-02-03T12:10:53.319Z</time>
      </trkpt>
      <trkpt lat="44.41064" lon="4.59019">
        <ele>339.83</ele>
        <time>2022-02-03T12:11:33.417Z</time>
      </trkpt>
      <trkpt lat="44.41078" lon="4.59051">
        <ele>338.47</ele>
        <time>2022-02-03T12:12:23.256Z</time>
      </trkpt>
      <trkpt lat="44.41087" lon="4.5908">
        <ele>337.02</ele>
        <time>2022-02-03T12:12:44.679Z</time>
      </trkpt>
      <trkpt lat="44.41099" lon="4.59124">
        <ele>334.51</ele>
        <time>2022-02-03T12:13:05.000Z</time>
      </trkpt>
      <trkpt lat="44.41094" lon="4.59155">
        <ele>333.22</ele>
        <time>2022-02-03T12:13:36.999Z</time>
      </trkpt>
      <trkpt lat="44.41093" lon="4.5917">
        <ele>332.81</ele>
        <time>2022-02-03T12:13:46.999Z</time>
      </trkpt>
      <trkpt lat="44.41101" lon="4.59213">
        <ele>332.14</ele>
        <time>2022-02-03T12:15:45.570Z</time>
      </trkpt>
      <trkpt lat="44.41111" lon="4.59265">
        <ele>333.98</ele>
        <time>2022-02-03T12:16:04.728Z</time>
      </trkpt>
      <trkpt lat="44.41117" lon="4.59298">
        <ele>337.25</ele>
        <time>2022-02-03T12:16:24.402Z</time>
      </trkpt>
      <trkpt lat="44.4112" lon="4.59324">
        <ele>340.3</ele>
        <time>2022-02-03T12:16:52.825Z</time>
      </trkpt>
      <trkpt lat="44.41128" lon="4.59364">
        <ele>345.08</ele>
        <time>2022-02-03T12:17:11.829Z</time>
      </trkpt>
      <trkpt lat="44.4113" lon="4.59379">
        <ele>346.89</ele>
        <time>2022-02-03T12:17:20.833Z</time>
      </trkpt>
      <trkpt lat="44.41137" lon="4.59409">
        <ele>350.19</ele>
        <time>2022-02-03T12:17:43.888Z</time>
      </trkpt>
      <trkpt lat="44.41141" lon="4.59436">
        <ele>352.46</ele>
        <time>2022-02-03T12:18:12.856Z</time>
      </trkpt>
      <trkpt lat="44.41151" lon="4.59469">
        <ele>354.53</ele>
        <time>2022-02-03T12:18:31.891Z</time>
      </trkpt>
      <trkpt lat="44.41157" lon="4.59497">
        <ele>355.93</ele>
        <time>2022-02-03T12:18:51.352Z</time>
      </trkpt>
      <trkpt lat="44.41163" lon="4.59525">
        <ele>357.15</ele>
        <time>2022-02-03T12:19:09.831Z</time>
      </trkpt>
      <trkpt lat="44.41167" lon="4.5954">
        <ele>357.7</ele>
        <time>2022-02-03T12:19:19.645Z</time>
      </trkpt>
      <trkpt lat="44.41177" lon="4.5957">
        <ele>358.54</ele>
        <time>2022-02-03T12:19:38.234Z</time>
      </trkpt>
      <trkpt lat="44.41196" lon="4.59574">
        <ele>358.44</ele>
        <time>2022-02-03T12:20:04.574Z</time>
      </trkpt>
      <trkpt lat="44.41218" lon="4.59579">
        <ele>358.33</ele>
        <time>2022-02-03T12:20:23.999Z</time>
      </trkpt>
      <trkpt lat="44.41241" lon="4.59589">
        <ele>358.14</ele>
        <time>2022-02-03T12:20:42.617Z</time>
      </trkpt>
      <trkpt lat="44.41268" lon="4.59587">
        <ele>357.77</ele>
        <time>2022-02-03T12:21:01.536Z</time>
      </trkpt>
      <trkpt lat="44.4128" lon="4.59587">
        <ele>357.59</ele>
        <time>2022-02-03T12:21:10.853Z</time>
      </trkpt>
      <trkpt lat="44.41299" lon="4.59597">
        <ele>357.3</ele>
        <time>2022-02-03T12:21:30.999Z</time>
      </trkpt>
      <trkpt lat="44.41324" lon="4.59595">
        <ele>357.01</ele>
        <time>2022-02-03T12:21:50.999Z</time>
      </trkpt>
      <trkpt lat="44.41348" lon="4.59582">
        <ele>356.98</ele>
        <time>2022-02-03T12:25:42.276Z</time>
      </trkpt>
      <trkpt lat="44.41381" lon="4.59572">
        <ele>357.16</ele>
        <time>2022-02-03T12:26:00.849Z</time>
      </trkpt>
      <trkpt lat="44.41391" lon="4.59567">
        <ele>357.19</ele>
        <time>2022-02-03T12:26:10.000Z</time>
      </trkpt>
      <trkpt lat="44.41417" lon="4.59556">
        <ele>357</ele>
        <time>2022-02-03T12:26:28.876Z</time>
      </trkpt>
      <trkpt lat="44.41436" lon="4.59541">
        <ele>356.62</ele>
        <time>2022-02-03T12:26:47.657Z</time>
      </trkpt>
      <trkpt lat="44.41444" lon="4.59511">
        <ele>355.85</ele>
        <time>2022-02-03T12:27:05.735Z</time>
      </trkpt>
      <trkpt lat="44.41452" lon="4.59477">
        <ele>354.52</ele>
        <time>2022-02-03T12:27:23.804Z</time>
      </trkpt>
      <trkpt lat="44.41461" lon="4.59447">
        <ele>352.91</ele>
        <time>2022-02-03T12:27:42.675Z</time>
      </trkpt>
      <trkpt lat="44.41474" lon="4.59441">
        <ele>352.23</ele>
        <time>2022-02-03T12:27:52.215Z</time>
      </trkpt>
      <trkpt lat="44.41495" lon="4.59428">
        <ele>350.81</ele>
        <time>2022-02-03T12:28:11.251Z</time>
      </trkpt>
      <trkpt lat="44.41517" lon="4.59408">
        <ele>349.01</ele>
        <time>2022-02-03T12:28:31.000Z</time>
      </trkpt>
      <trkpt lat="44.41531" lon="4.5938">
        <ele>346.98</ele>
        <time>2022-02-03T12:28:49.813Z</time>
      </trkpt>
      <trkpt lat="44.4155" lon="4.59356">
        <ele>345.09</ele>
        <time>2022-02-03T12:29:08.397Z</time>
      </trkpt>
      <trkpt lat="44.4157" lon="4.59339">
        <ele>343.64</ele>
        <time>2022-02-03T12:29:26.877Z</time>
      </trkpt>
      <trkpt lat="44.4158" lon="4.5933">
        <ele>342.94</ele>
        <time>2022-02-03T12:29:36.356Z</time>
      </trkpt>
      <trkpt lat="44.41601" lon="4.59309">
        <ele>341.19</ele>
        <time>2022-02-03T12:29:55.319Z</time>
      </trkpt>
      <trkpt lat="44.41621" lon="4.5929">
        <ele>339.59</ele>
        <time>2022-02-03T12:30:14.698Z</time>
      </trkpt>
      <trkpt lat="44.41643" lon="4.59269">
        <ele>338.15</ele>
        <time>2022-02-03T12:30:32.811Z</time>
      </trkpt>
      <trkpt lat="44.41653" lon="4.59249">
        <ele>337.27</ele>
        <time>2022-02-03T12:30:55.936Z</time>
      </trkpt>
      <trkpt lat="44.41659" lon="4.59216">
        <ele>336.56</ele>
        <time>2022-02-03T12:31:14.058Z</time>
      </trkpt>
      <trkpt lat="44.41668" lon="4.59205">
        <ele>336.39</ele>
        <time>2022-02-03T12:31:23.197Z</time>
      </trkpt>
      <trkpt lat="44.41686" lon="4.59191">
        <ele>336.07</ele>
        <time>2022-02-03T12:31:43.360Z</time>
      </trkpt>
      <trkpt lat="44.41704" lon="4.59175">
        <ele>335.35</ele>
        <time>2022-02-03T12:32:10.468Z</time>
      </trkpt>
      <trkpt lat="44.41704" lon="4.59142">
        <ele>332.69</ele>
        <time>2022-02-03T12:32:29.473Z</time>
      </trkpt>
      <trkpt lat="44.41686" lon="4.59124">
        <ele>330.96</ele>
        <time>2022-02-03T12:32:48.169Z</time>
      </trkpt>
      <trkpt lat="44.41665" lon="4.59109">
        <ele>329.31</ele>
        <time>2022-02-03T12:33:06.689Z</time>
      </trkpt>
      <trkpt lat="44.41658" lon="4.59101">
        <ele>328.35</ele>
        <time>2022-02-03T12:33:22.430Z</time>
      </trkpt>
      <trkpt lat="44.41637" lon="4.59065">
        <ele>324.09</ele>
        <time>2022-02-03T12:33:42.431Z</time>
      </trkpt>
      <trkpt lat="44.41634" lon="4.59033">
        <ele>320.29</ele>
        <time>2022-02-03T12:34:00.650Z</time>
      </trkpt>
      <trkpt lat="44.41624" lon="4.59003">
        <ele>317.02</ele>
        <time>2022-02-03T12:34:22.829Z</time>
      </trkpt>
      <trkpt lat="44.41617" lon="4.58971">
        <ele>314.41</ele>
        <time>2022-02-03T12:34:42.429Z</time>
      </trkpt>
      <trkpt lat="44.41619" lon="4.5893">
        <ele>310.62</ele>
        <time>2022-02-03T12:35:01.148Z</time>
      </trkpt>
      <trkpt lat="44.41622" lon="4.58909">
        <ele>307.6</ele>
        <time>2022-02-03T12:35:10.673Z</time>
      </trkpt>
      <trkpt lat="44.41629" lon="4.58878">
        <ele>300.89</ele>
        <time>2022-02-03T12:35:28.737Z</time>
      </trkpt>
      <trkpt lat="44.41643" lon="4.58899">
        <ele>302.43</ele>
        <time>2022-02-03T12:35:47.093Z</time>
      </trkpt>
      <trkpt lat="44.41655" lon="4.58923">
        <ele>304.28</ele>
        <time>2022-02-03T12:36:07.630Z</time>
      </trkpt>
      <trkpt lat="44.41663" lon="4.58956">
        <ele>307.45</ele>
        <time>2022-02-03T12:36:25.999Z</time>
      </trkpt>
      <trkpt lat="44.41665" lon="4.58924">
        <ele>302.49</ele>
        <time>2022-02-03T12:36:59.749Z</time>
      </trkpt>
      <trkpt lat="44.4167" lon="4.58908">
        <ele>298.92</ele>
        <time>2022-02-03T12:37:08.888Z</time>
      </trkpt>
      <trkpt lat="44.41679" lon="4.58881">
        <ele>291.64</ele>
        <time>2022-02-03T12:37:28.391Z</time>
      </trkpt>
      <trkpt lat="44.41689" lon="4.58895">
        <ele>291.69</ele>
        <time>2022-02-03T12:37:51.988Z</time>
      </trkpt>
      <trkpt lat="44.4169" lon="4.58924">
        <ele>296.15</ele>
        <time>2022-02-03T12:38:12.029Z</time>
      </trkpt>
      <trkpt lat="44.41701" lon="4.58954">
        <ele>297.63</ele>
        <time>2022-02-03T12:38:30.852Z</time>
      </trkpt>
      <trkpt lat="44.41713" lon="4.58965">
        <ele>296.02</ele>
        <time>2022-02-03T12:38:39.932Z</time>
      </trkpt>
      <trkpt lat="44.4173" lon="4.58978">
        <ele>293.52</ele>
        <time>2022-02-03T12:39:01.492Z</time>
      </trkpt>
      <trkpt lat="44.41752" lon="4.58986">
        <ele>290.17</ele>
        <time>2022-02-03T12:39:20.032Z</time>
      </trkpt>
      <trkpt lat="44.4177" lon="4.58991">
        <ele>288.15</ele>
        <time>2022-02-03T12:39:39.710Z</time>
      </trkpt>
      <trkpt lat="44.41774" lon="4.58984">
        <ele>285.44</ele>
        <time>2022-02-03T12:40:10.313Z</time>
      </trkpt>
      <trkpt lat="44.41757" lon="4.58969">
        <ele>285.54</ele>
        <time>2022-02-03T12:40:29.452Z</time>
      </trkpt>
      <trkpt lat="44.4175" lon="4.58958">
        <ele>285.06</ele>
        <time>2022-02-03T12:40:38.933Z</time>
      </trkpt>
      <trkpt lat="44.41736" lon="4.58931">
        <ele>283.8</ele>
        <time>2022-02-03T12:40:57.633Z</time>
      </trkpt>
      <trkpt lat="44.41744" lon="4.58904">
        <ele>278.77</ele>
        <time>2022-02-03T12:41:22.032Z</time>
      </trkpt>
      <trkpt lat="44.4175" lon="4.58879">
        <ele>276.25</ele>
        <time>2022-02-03T12:41:44.000Z</time>
      </trkpt>
      <trkpt lat="44.4176" lon="4.58843">
        <ele>276.61</ele>
        <time>2022-02-03T12:42:22.613Z</time>
      </trkpt>
      <trkpt lat="44.41778" lon="4.58855">
        <ele>277.16</ele>
        <time>2022-02-03T12:42:49.416Z</time>
      </trkpt>
      <trkpt lat="44.41782" lon="4.58866">
        <ele>276.43</ele>
        <time>2022-02-03T12:42:59.777Z</time>
      </trkpt>
      <trkpt lat="44.41793" lon="4.58905">
        <ele>273.84</ele>
        <time>2022-02-03T12:43:18.254Z</time>
      </trkpt>
      <trkpt lat="44.41807" lon="4.5893">
        <ele>273.07</ele>
        <time>2022-02-03T12:43:39.918Z</time>
      </trkpt>
      <trkpt lat="44.41824" lon="4.58953">
        <ele>273.08</ele>
        <time>2022-02-03T12:44:06.484Z</time>
      </trkpt>
      <trkpt lat="44.41848" lon="4.58951">
        <ele>270.84</ele>
        <time>2022-02-03T12:44:26.094Z</time>
      </trkpt>
      <trkpt lat="44.41871" lon="4.5895">
        <ele>269.54</ele>
        <time>2022-02-03T12:45:00.357Z</time>
      </trkpt>
      <trkpt lat="44.41889" lon="4.58946">
        <ele>268.52</ele>
        <time>2022-02-03T12:45:09.734Z</time>
      </trkpt>
      <trkpt lat="44.4192" lon="4.58943">
        <ele>266.62</ele>
        <time>2022-02-03T12:45:28.276Z</time>
      </trkpt>
      <trkpt lat="44.41949" lon="4.58929">
        <ele>262.77</ele>
        <time>2022-02-03T12:45:46.516Z</time>
      </trkpt>
      <trkpt lat="44.41968" lon="4.58911">
        <ele>258.69</ele>
        <time>2022-02-03T12:46:06.000Z</time>
      </trkpt>
      <trkpt lat="44.41988" lon="4.58894">
        <ele>255.46</ele>
        <time>2022-02-03T12:46:30.853Z</time>
      </trkpt>
      <trkpt lat="44.42017" lon="4.58895">
        <ele>252.98</ele>
        <time>2022-02-03T12:47:17.854Z</time>
      </trkpt>
      <trkpt lat="44.42025" lon="4.58901">
        <ele>251.88</ele>
        <time>2022-02-03T12:47:28.754Z</time>
      </trkpt>
      <trkpt lat="44.42047" lon="4.58911">
        <ele>248.99</ele>
        <time>2022-02-03T12:47:47.254Z</time>
      </trkpt>
      <trkpt lat="44.42072" lon="4.58921">
        <ele>246.9</ele>
        <time>2022-02-03T12:48:07.634Z</time>
      </trkpt>
      <trkpt lat="44.42089" lon="4.5894">
        <ele>246.62</ele>
        <time>2022-02-03T12:48:27.193Z</time>
      </trkpt>
      <trkpt lat="44.42105" lon="4.58964">
        <ele>247.93</ele>
        <time>2022-02-03T12:48:47.232Z</time>
      </trkpt>
      <trkpt lat="44.42115" lon="4.58998">
        <ele>247</ele>
        <time>2022-02-03T12:49:11.692Z</time>
      </trkpt>
      <trkpt lat="44.42118" lon="4.59011">
        <ele>246.62</ele>
        <time>2022-02-03T12:49:20.869Z</time>
      </trkpt>
      <trkpt lat="44.42127" lon="4.59034">
        <ele>245.87</ele>
        <time>2022-02-03T12:49:42.111Z</time>
      </trkpt>
      <trkpt lat="44.42135" lon="4.59066">
        <ele>244.56</ele>
        <time>2022-02-03T12:50:01.551Z</time>
      </trkpt>
      <trkpt lat="44.42152" lon="4.59084">
        <ele>239.85</ele>
        <time>2022-02-03T12:50:29.548Z</time>
      </trkpt>
      <trkpt lat="44.42171" lon="4.59096">
        <ele>235.3</ele>
        <time>2022-02-03T12:50:57.869Z</time>
      </trkpt>
      <trkpt lat="44.42195" lon="4.59109">
        <ele>231.32</ele>
        <time>2022-02-03T12:51:18.999Z</time>
      </trkpt>
      <trkpt lat="44.42199" lon="4.59121">
        <ele>229.42</ele>
        <time>2022-02-03T12:51:36.531Z</time>
      </trkpt>
      <trkpt lat="44.42199" lon="4.5915">
        <ele>226.99</ele>
        <time>2022-02-03T12:51:54.999Z</time>
      </trkpt>
      <trkpt lat="44.42204" lon="4.59189">
        <ele>227.11</ele>
        <time>2022-02-03T12:52:14.826Z</time>
      </trkpt>
      <trkpt lat="44.42213" lon="4.59208">
        <ele>227.39</ele>
        <time>2022-02-03T12:52:37.471Z</time>
      </trkpt>
      <trkpt lat="44.42227" lon="4.59191">
        <ele>221.04</ele>
        <time>2022-02-03T12:52:59.891Z</time>
      </trkpt>
      <trkpt lat="44.42249" lon="4.59173">
        <ele>215.73</ele>
        <time>2022-02-03T12:53:24.631Z</time>
      </trkpt>
      <trkpt lat="44.42258" lon="4.59171">
        <ele>214.58</ele>
        <time>2022-02-03T12:53:34.711Z</time>
      </trkpt>
      <trkpt lat="44.42283" lon="4.59168">
        <ele>213.25</ele>
        <time>2022-02-03T12:54:15.594Z</time>
      </trkpt>
      <trkpt lat="44.42302" lon="4.59189">
        <ele>210.78</ele>
        <time>2022-02-03T12:55:07.360Z</time>
      </trkpt>
      <trkpt lat="44.42324" lon="4.59204">
        <ele>209.47</ele>
        <time>2022-02-03T12:55:28.310Z</time>
      </trkpt>
      <trkpt lat="44.42345" lon="4.59214">
        <ele>207.16</ele>
        <time>2022-02-03T12:55:47.008Z</time>
      </trkpt>
      <trkpt lat="44.42354" lon="4.59216">
        <ele>205.8</ele>
        <time>2022-02-03T12:55:58.430Z</time>
      </trkpt>
      <trkpt lat="44.42373" lon="4.59229">
        <ele>202.98</ele>
        <time>2022-02-03T12:56:19.999Z</time>
      </trkpt>
      <trkpt lat="44.42393" lon="4.59242">
        <ele>199.5</ele>
        <time>2022-02-03T12:56:40.999Z</time>
      </trkpt>
      <trkpt lat="44.42413" lon="4.59238">
        <ele>196.03</ele>
        <time>2022-02-03T12:57:01.999Z</time>
      </trkpt>
      <trkpt lat="44.42433" lon="4.59241">
        <ele>193.53</ele>
        <time>2022-02-03T12:57:34.770Z</time>
      </trkpt>
      <trkpt lat="44.42451" lon="4.59262">
        <ele>191.61</ele>
        <time>2022-02-03T12:57:54.999Z</time>
      </trkpt>
      <trkpt lat="44.42458" lon="4.59281">
        <ele>191.8</ele>
        <time>2022-02-03T12:58:04.250Z</time>
      </trkpt>
      <trkpt lat="44.42469" lon="4.59308">
        <ele>192.12</ele>
        <time>2022-02-03T12:58:22.871Z</time>
      </trkpt>
      <trkpt lat="44.42478" lon="4.5934">
        <ele>192.34</ele>
        <time>2022-02-03T12:58:42.844Z</time>
      </trkpt>
      <trkpt lat="44.42486" lon="4.59367">
        <ele>192.29</ele>
        <time>2022-02-03T12:59:01.489Z</time>
      </trkpt>
      <trkpt lat="44.42494" lon="4.59396">
        <ele>192.12</ele>
        <time>2022-02-03T12:59:25.429Z</time>
      </trkpt>
      <trkpt lat="44.42503" lon="4.59431">
        <ele>191.99</ele>
        <time>2022-02-03T12:59:44.513Z</time>
      </trkpt>
      <trkpt lat="44.42506" lon="4.59447">
        <ele>191.99</ele>
        <time>2022-02-03T12:59:53.630Z</time>
      </trkpt>
      <trkpt lat="44.42508" lon="4.59482">
        <ele>191.61</ele>
        <time>2022-02-03T13:00:12.590Z</time>
      </trkpt>
      <trkpt lat="44.42508" lon="4.59517">
        <ele>191.4</ele>
        <time>2022-02-03T13:00:31.450Z</time>
      </trkpt>
      <trkpt lat="44.42513" lon="4.5955">
        <ele>191.05</ele>
        <time>2022-02-03T13:00:51.000Z</time>
      </trkpt>
      <trkpt lat="44.42516" lon="4.59582">
        <ele>190.94</ele>
        <time>2022-02-03T13:01:10.836Z</time>
      </trkpt>
      <trkpt lat="44.42523" lon="4.59608">
        <ele>191.37</ele>
        <time>2022-02-03T13:01:29.780Z</time>
      </trkpt>
      <trkpt lat="44.42526" lon="4.59624">
        <ele>192.05</ele>
        <time>2022-02-03T13:01:38.849Z</time>
      </trkpt>
      <trkpt lat="44.42533" lon="4.59656">
        <ele>191.55</ele>
        <time>2022-02-03T13:01:57.471Z</time>
      </trkpt>
      <trkpt lat="44.42539" lon="4.59686">
        <ele>186.77</ele>
        <time>2022-02-03T13:02:16.528Z</time>
      </trkpt>
      <trkpt lat="44.42542" lon="4.59718">
        <ele>179.5</ele>
        <time>2022-02-03T13:02:35.748Z</time>
      </trkpt>
      <trkpt lat="44.42526" lon="4.59741">
        <ele>176.41</ele>
        <time>2022-02-03T13:02:56.748Z</time>
      </trkpt>
      <trkpt lat="44.42499" lon="4.59752">
        <ele>177.02</ele>
        <time>2022-02-03T13:03:15.688Z</time>
      </trkpt>
      <trkpt lat="44.42487" lon="4.59754">
        <ele>178.28</ele>
        <time>2022-02-03T13:03:24.827Z</time>
      </trkpt>
      <trkpt lat="44.42462" lon="4.59761">
        <ele>182.37</ele>
        <time>2022-02-03T13:03:44.000Z</time>
      </trkpt>
      <trkpt lat="44.42438" lon="4.5976">
        <ele>190.1</ele>
        <time>2022-02-03T13:04:02.528Z</time>
      </trkpt>
      <trkpt lat="44.42427" lon="4.59781">
        <ele>188.75</ele>
        <time>2022-02-03T13:04:23.526Z</time>
      </trkpt>
      <trkpt lat="44.42413" lon="4.59804">
        <ele>188.93</ele>
        <time>2022-02-03T13:04:42.731Z</time>
      </trkpt>
      <trkpt lat="44.424" lon="4.59825">
        <ele>192.25</ele>
        <time>2022-02-03T13:05:04.000Z</time>
      </trkpt>
      <trkpt lat="44.42394" lon="4.59843">
        <ele>193.77</ele>
        <time>2022-02-03T13:05:13.192Z</time>
      </trkpt>
      <trkpt lat="44.42387" lon="4.59869">
        <ele>196.44</ele>
        <time>2022-02-03T13:05:33.732Z</time>
      </trkpt>
      <trkpt lat="44.42384" lon="4.59899">
        <ele>196.57</ele>
        <time>2022-02-03T13:05:52.332Z</time>
      </trkpt>
      <trkpt lat="44.42378" lon="4.59932">
        <ele>200.61</ele>
        <time>2022-02-03T13:06:11.827Z</time>
      </trkpt>
      <trkpt lat="44.42382" lon="4.5996">
        <ele>197.04</ele>
        <time>2022-02-03T13:06:32.819Z</time>
      </trkpt>
      <trkpt lat="44.42376" lon="4.59989">
        <ele>201.76</ele>
        <time>2022-02-03T13:06:52.611Z</time>
      </trkpt>
      <trkpt lat="44.42377" lon="4.60002">
        <ele>201.38</ele>
        <time>2022-02-03T13:07:01.755Z</time>
      </trkpt>
      <trkpt lat="44.42374" lon="4.60034">
        <ele>204.75</ele>
        <time>2022-02-03T13:07:21.052Z</time>
      </trkpt>
      <trkpt lat="44.42382" lon="4.60059">
        <ele>201.86</ele>
        <time>2022-02-03T13:07:48.000Z</time>
      </trkpt>
      <trkpt lat="44.42393" lon="4.60087">
        <ele>199.14</ele>
        <time>2022-02-03T13:08:24.000Z</time>
      </trkpt>
      <trkpt lat="44.42395" lon="4.60113">
        <ele>203.08</ele>
        <time>2022-02-03T13:08:56.000Z</time>
      </trkpt>
      <trkpt lat="44.4241" lon="4.60138">
        <ele>204.72</ele>
        <time>2022-02-03T13:09:15.314Z</time>
      </trkpt>
      <trkpt lat="44.42415" lon="4.60151">
        <ele>207.28</ele>
        <time>2022-02-03T13:10:16.775Z</time>
      </trkpt>
      <trkpt lat="44.42436" lon="4.60164">
        <ele>207.69</ele>
        <time>2022-02-03T13:10:36.894Z</time>
      </trkpt>
      <trkpt lat="44.42448" lon="4.60172">
        <ele>208.91</ele>
        <time>2022-02-03T13:11:14.254Z</time>
      </trkpt>
      <trkpt lat="44.42423" lon="4.60179">
        <ele>213.16</ele>
        <time>2022-02-03T13:11:32.414Z</time>
      </trkpt>
      <trkpt lat="44.42395" lon="4.60173">
        <ele>215.77</ele>
        <time>2022-02-03T13:12:05.932Z</time>
      </trkpt>
      <trkpt lat="44.42377" lon="4.60166">
        <ele>217.61</ele>
        <time>2022-02-03T13:12:15.296Z</time>
      </trkpt>
      <trkpt lat="44.4235" lon="4.6016">
        <ele>221.83</ele>
        <time>2022-02-03T13:12:33.830Z</time>
      </trkpt>
      <trkpt lat="44.42331" lon="4.60153">
        <ele>224.98</ele>
        <time>2022-02-03T13:12:53.999Z</time>
      </trkpt>
      <trkpt lat="44.42311" lon="4.60156">
        <ele>227.87</ele>
        <time>2022-02-03T13:13:24.999Z</time>
      </trkpt>
      <trkpt lat="44.42309" lon="4.60156">
        <ele>228.17</ele>
        <time>2022-02-03T13:16:33.553Z</time>
      </trkpt>
      <trkpt lat="44.42334" lon="4.60173">
        <ele>225.3</ele>
        <time>2022-02-03T13:16:52.493Z</time>
      </trkpt>
      <trkpt lat="44.42346" lon="4.60184">
        <ele>224.56</ele>
        <time>2022-02-03T13:17:02.114Z</time>
      </trkpt>
      <trkpt lat="44.42363" lon="4.60208">
        <ele>225.76</ele>
        <time>2022-02-03T13:17:21.273Z</time>
      </trkpt>
      <trkpt lat="44.42381" lon="4.60233">
        <ele>228.31</ele>
        <time>2022-02-03T13:17:40.534Z</time>
      </trkpt>
      <trkpt lat="44.42394" lon="4.60251">
        <ele>229.69</ele>
        <time>2022-02-03T13:18:01.713Z</time>
      </trkpt>
      <trkpt lat="44.42414" lon="4.60282">
        <ele>229.68</ele>
        <time>2022-02-03T13:18:29.215Z</time>
      </trkpt>
      <trkpt lat="44.42427" lon="4.6031">
        <ele>227.78</ele>
        <time>2022-02-03T13:18:58.019Z</time>
      </trkpt>
      <trkpt lat="44.42431" lon="4.60336">
        <ele>225.14</ele>
        <time>2022-02-03T13:19:07.439Z</time>
      </trkpt>
      <trkpt lat="44.42438" lon="4.60371">
        <ele>219.06</ele>
        <time>2022-02-03T13:19:25.655Z</time>
      </trkpt>
      <trkpt lat="44.42437" lon="4.6041">
        <ele>210.88</ele>
        <time>2022-02-03T13:19:45.555Z</time>
      </trkpt>
      <trkpt lat="44.42438" lon="4.60438">
        <ele>208.65</ele>
        <time>2022-02-03T13:20:04.455Z</time>
      </trkpt>
      <trkpt lat="44.42446" lon="4.60468">
        <ele>207.64</ele>
        <time>2022-02-03T13:20:24.565Z</time>
      </trkpt>
      <trkpt lat="44.42463" lon="4.60486">
        <ele>204.7</ele>
        <time>2022-02-03T13:20:44.290Z</time>
      </trkpt>
      <trkpt lat="44.42469" lon="4.60497">
        <ele>202.63</ele>
        <time>2022-02-03T13:20:54.000Z</time>
      </trkpt>
      <trkpt lat="44.42487" lon="4.60526">
        <ele>197.77</ele>
        <time>2022-02-03T13:21:12.756Z</time>
      </trkpt>
      <trkpt lat="44.42505" lon="4.60544">
        <ele>195.3</ele>
        <time>2022-02-03T13:21:32.593Z</time>
      </trkpt>
      <trkpt lat="44.42523" lon="4.60556">
        <ele>194.37</ele>
        <time>2022-02-03T13:21:52.734Z</time>
      </trkpt>
      <trkpt lat="44.42547" lon="4.60574">
        <ele>192.83</ele>
        <time>2022-02-03T13:22:11.592Z</time>
      </trkpt>
      <trkpt lat="44.42565" lon="4.60594">
        <ele>189.5</ele>
        <time>2022-02-03T13:22:29.851Z</time>
      </trkpt>
      <trkpt lat="44.42572" lon="4.60607">
        <ele>186.83</ele>
        <time>2022-02-03T13:22:39.514Z</time>
      </trkpt>
      <trkpt lat="44.42583" lon="4.60629">
        <ele>181.79</ele>
        <time>2022-02-03T13:22:57.652Z</time>
      </trkpt>
      <trkpt lat="44.42589" lon="4.60661">
        <ele>175.3</ele>
        <time>2022-02-03T13:23:15.803Z</time>
      </trkpt>
      <trkpt lat="44.42592" lon="4.60691">
        <ele>170.1</ele>
        <time>2022-02-03T13:23:34.253Z</time>
      </trkpt>
      <trkpt lat="44.42588" lon="4.60717">
        <ele>165.51</ele>
        <time>2022-02-03T13:23:57.592Z</time>
      </trkpt>
      <trkpt lat="44.42579" lon="4.60746">
        <ele>162.65</ele>
        <time>2022-02-03T13:24:22.452Z</time>
      </trkpt>
      <trkpt lat="44.42578" lon="4.60766">
        <ele>161.89</ele>
        <time>2022-02-03T13:24:33.000Z</time>
      </trkpt>
      <trkpt lat="44.42583" lon="4.60801">
        <ele>161.1</ele>
        <time>2022-02-03T13:24:52.000Z</time>
      </trkpt>
      <trkpt lat="44.42595" lon="4.6083">
        <ele>161.1</ele>
        <time>2022-02-03T13:25:13.314Z</time>
      </trkpt>
      <trkpt lat="44.42615" lon="4.60852">
        <ele>161.11</ele>
        <time>2022-02-03T13:25:32.233Z</time>
      </trkpt>
      <trkpt lat="44.42634" lon="4.60872">
        <ele>160.5</ele>
        <time>2022-02-03T13:25:50.392Z</time>
      </trkpt>
      <trkpt lat="44.42649" lon="4.6089">
        <ele>158.53</ele>
        <time>2022-02-03T13:26:10.000Z</time>
      </trkpt>
      <trkpt lat="44.42659" lon="4.609">
        <ele>156.79</ele>
        <time>2022-02-03T13:26:19.133Z</time>
      </trkpt>
      <trkpt lat="44.42679" lon="4.60918">
        <ele>153.52</ele>
        <time>2022-02-03T13:26:39.819Z</time>
      </trkpt>
      <trkpt lat="44.42693" lon="4.60941">
        <ele>151.6</ele>
        <time>2022-02-03T13:26:58.012Z</time>
      </trkpt>
      <trkpt lat="44.42703" lon="4.60971">
        <ele>150.05</ele>
        <time>2022-02-03T13:27:16.453Z</time>
      </trkpt>
      <trkpt lat="44.42716" lon="4.60996">
        <ele>147.39</ele>
        <time>2022-02-03T13:27:35.533Z</time>
      </trkpt>
      <trkpt lat="44.42722" lon="4.61006">
        <ele>146.02</ele>
        <time>2022-02-03T13:27:52.492Z</time>
      </trkpt>
      <trkpt lat="44.42748" lon="4.61031">
        <ele>141.67</ele>
        <time>2022-02-03T13:28:11.552Z</time>
      </trkpt>
      <trkpt lat="44.42767" lon="4.61044">
        <ele>140.27</ele>
        <time>2022-02-03T13:28:30.530Z</time>
      </trkpt>
      <trkpt lat="44.42794" lon="4.61051">
        <ele>140</ele>
        <time>2022-02-03T13:28:50.612Z</time>
      </trkpt>
      <trkpt lat="44.4281" lon="4.61076">
        <ele>138.13</ele>
        <time>2022-02-03T13:29:10.733Z</time>
      </trkpt>
      <trkpt lat="44.42817" lon="4.61111">
        <ele>134.82</ele>
        <time>2022-02-03T13:29:30.999Z</time>
      </trkpt>
      <trkpt lat="44.42819" lon="4.6113">
        <ele>132.86</ele>
        <time>2022-02-03T13:29:40.194Z</time>
      </trkpt>
      <trkpt lat="44.42828" lon="4.61159">
        <ele>129.22</ele>
        <time>2022-02-03T13:29:59.254Z</time>
      </trkpt>
      <trkpt lat="44.42847" lon="4.61173">
        <ele>126.56</ele>
        <time>2022-02-03T13:30:18.653Z</time>
      </trkpt>
      <trkpt lat="44.42848" lon="4.61206">
        <ele>123.82</ele>
        <time>2022-02-03T13:30:37.871Z</time>
      </trkpt>
      <trkpt lat="44.4285" lon="4.61241">
        <ele>121.62</ele>
        <time>2022-02-03T13:30:56.335Z</time>
      </trkpt>
      <trkpt lat="44.42856" lon="4.61272">
        <ele>120.15</ele>
        <time>2022-02-03T13:31:14.834Z</time>
      </trkpt>
      <trkpt lat="44.42863" lon="4.61281">
        <ele>119.8</ele>
        <time>2022-02-03T13:31:23.999Z</time>
      </trkpt>
      <trkpt lat="44.42873" lon="4.61311">
        <ele>118.77</ele>
        <time>2022-02-03T13:31:42.216Z</time>
      </trkpt>
      <trkpt lat="44.42873" lon="4.61341">
        <ele>118.14</ele>
        <time>2022-02-03T13:32:01.237Z</time>
      </trkpt>
      <trkpt lat="44.42884" lon="4.61373">
        <ele>117.89</ele>
        <time>2022-02-03T13:32:20.133Z</time>
      </trkpt>
      <trkpt lat="44.42897" lon="4.61405">
        <ele>117.45</ele>
        <time>2022-02-03T13:32:39.616Z</time>
      </trkpt>
      <trkpt lat="44.42914" lon="4.61427">
        <ele>116.4</ele>
        <time>2022-02-03T13:32:58.316Z</time>
      </trkpt>
      <trkpt lat="44.42923" lon="4.61437">
        <ele>116</ele>
        <time>2022-02-03T13:33:07.898Z</time>
      </trkpt>
      <trkpt lat="44.42937" lon="4.61466">
        <ele>115.95</ele>
        <time>2022-02-03T13:33:26.597Z</time>
      </trkpt>
      <trkpt lat="44.42943" lon="4.61496">
        <ele>116.26</ele>
        <time>2022-02-03T13:33:45.398Z</time>
      </trkpt>
      <trkpt lat="44.4295" lon="4.61531">
        <ele>115.49</ele>
        <time>2022-02-03T13:34:04.999Z</time>
      </trkpt>
      <trkpt lat="44.42963" lon="4.61568">
        <ele>113.21</ele>
        <time>2022-02-03T13:34:24.577Z</time>
      </trkpt>
      <trkpt lat="44.42975" lon="4.61598">
        <ele>111.37</ele>
        <time>2022-02-03T13:34:44.999Z</time>
      </trkpt>
      <trkpt lat="44.42984" lon="4.61612">
        <ele>110.28</ele>
        <time>2022-02-03T13:34:54.468Z</time>
      </trkpt>
      <trkpt lat="44.42996" lon="4.61638">
        <ele>108.81</ele>
        <time>2022-02-03T13:35:13.999Z</time>
      </trkpt>
      <trkpt lat="44.43006" lon="4.61666">
        <ele>107.14</ele>
        <time>2022-02-03T13:35:35.228Z</time>
      </trkpt>
      <trkpt lat="44.43029" lon="4.61698">
        <ele>102.44</ele>
        <time>2022-02-03T13:35:54.194Z</time>
      </trkpt>
      <trkpt lat="44.43046" lon="4.6171">
        <ele>99.89</ele>
        <time>2022-02-03T13:36:15.232Z</time>
      </trkpt>
      <trkpt lat="44.43071" lon="4.61738">
        <ele>98.36</ele>
        <time>2022-02-03T13:36:33.732Z</time>
      </trkpt>
      <trkpt lat="44.43085" lon="4.61751">
        <ele>97.9</ele>
        <time>2022-02-03T13:36:42.999Z</time>
      </trkpt>
      <trkpt lat="44.43098" lon="4.61778">
        <ele>97.29</ele>
        <time>2022-02-03T13:37:02.329Z</time>
      </trkpt>
      <trkpt lat="44.43119" lon="4.61798">
        <ele>95.02</ele>
        <time>2022-02-03T13:37:20.449Z</time>
      </trkpt>
      <trkpt lat="44.43128" lon="4.61771">
        <ele>94.23</ele>
        <time>2022-02-03T13:37:46.000Z</time>
      </trkpt>
      <trkpt lat="44.43139" lon="4.61735">
        <ele>93.2</ele>
        <time>2022-02-03T13:38:05.070Z</time>
      </trkpt>
      <trkpt lat="44.4315" lon="4.61701">
        <ele>92.68</ele>
        <time>2022-02-03T13:38:24.630Z</time>
      </trkpt>
      <trkpt lat="44.43153" lon="4.61686">
        <ele>92.88</ele>
        <time>2022-02-03T13:38:33.709Z</time>
      </trkpt>
      <trkpt lat="44.43157" lon="4.61658">
        <ele>94.12</ele>
        <time>2022-02-03T13:38:52.290Z</time>
      </trkpt>
      <trkpt lat="44.4316" lon="4.61627">
        <ele>96.76</ele>
        <time>2022-02-03T13:39:11.613Z</time>
      </trkpt>
      <trkpt lat="44.43159" lon="4.61593">
        <ele>99.64</ele>
        <time>2022-02-03T13:39:31.549Z</time>
      </trkpt>
      <trkpt lat="44.43161" lon="4.61561">
        <ele>101.71</ele>
        <time>2022-02-03T13:39:51.552Z</time>
      </trkpt>
      <trkpt lat="44.43167" lon="4.61532">
        <ele>103.75</ele>
        <time>2022-02-03T13:40:10.990Z</time>
      </trkpt>
      <trkpt lat="44.43169" lon="4.61517">
        <ele>104.6</ele>
        <time>2022-02-03T13:40:20.511Z</time>
      </trkpt>
      <trkpt lat="44.43174" lon="4.61486">
        <ele>106.75</ele>
        <time>2022-02-03T13:40:39.512Z</time>
      </trkpt>
      <trkpt lat="44.43174" lon="4.61455">
        <ele>108.32</ele>
        <time>2022-02-03T13:40:58.573Z</time>
      </trkpt>
      <trkpt lat="44.43165" lon="4.61427">
        <ele>107.55</ele>
        <time>2022-02-03T13:41:17.213Z</time>
      </trkpt>
      <trkpt lat="44.43165" lon="4.61393">
        <ele>107.16</ele>
        <time>2022-02-03T13:41:36.052Z</time>
      </trkpt>
      <trkpt lat="44.43167" lon="4.61379">
        <ele>106.96</ele>
        <time>2022-02-03T13:41:45.633Z</time>
      </trkpt>
      <trkpt lat="44.43182" lon="4.61344">
        <ele>108.12</ele>
        <time>2022-02-03T13:42:05.376Z</time>
      </trkpt>
      <trkpt lat="44.43203" lon="4.61337">
        <ele>113.11</ele>
        <time>2022-02-03T13:42:26.000Z</time>
      </trkpt>
      <trkpt lat="44.43226" lon="4.6133">
        <ele>119.05</ele>
        <time>2022-02-03T13:42:44.830Z</time>
      </trkpt>
      <trkpt lat="44.43244" lon="4.6132">
        <ele>123.09</ele>
        <time>2022-02-03T13:43:05.393Z</time>
      </trkpt>
      <trkpt lat="44.43263" lon="4.61297">
        <ele>125.59</ele>
        <time>2022-02-03T13:43:24.717Z</time>
      </trkpt>
      <trkpt lat="44.43272" lon="4.61288">
        <ele>126.79</ele>
        <time>2022-02-03T13:43:34.072Z</time>
      </trkpt>
      <trkpt lat="44.43287" lon="4.61264">
        <ele>127.65</ele>
        <time>2022-02-03T13:43:53.000Z</time>
      </trkpt>
      <trkpt lat="44.43296" lon="4.61237">
        <ele>127.28</ele>
        <time>2022-02-03T13:44:11.234Z</time>
      </trkpt>
      <trkpt lat="44.43307" lon="4.6121">
        <ele>126.6</ele>
        <time>2022-02-03T13:44:30.818Z</time>
      </trkpt>
      <trkpt lat="44.43326" lon="4.61187">
        <ele>125.82</ele>
        <time>2022-02-03T13:44:49.790Z</time>
      </trkpt>
      <trkpt lat="44.43343" lon="4.61167">
        <ele>125.63</ele>
        <time>2022-02-03T13:45:08.709Z</time>
      </trkpt>
      <trkpt lat="44.43347" lon="4.61152">
        <ele>125.37</ele>
        <time>2022-02-03T13:45:20.000Z</time>
      </trkpt>
      <trkpt lat="44.43356" lon="4.61125">
        <ele>125.6</ele>
        <time>2022-02-03T13:45:40.754Z</time>
      </trkpt>
      <trkpt lat="44.43369" lon="4.61098">
        <ele>127.55</ele>
        <time>2022-02-03T13:46:00.575Z</time>
      </trkpt>
      <trkpt lat="44.4338" lon="4.61069">
        <ele>129.84</ele>
        <time>2022-02-03T13:46:19.856Z</time>
      </trkpt>
      <trkpt lat="44.43397" lon="4.61045">
        <ele>132.82</ele>
        <time>2022-02-03T13:46:41.000Z</time>
      </trkpt>
      <trkpt lat="44.43413" lon="4.61026">
        <ele>134.88</ele>
        <time>2022-02-03T13:47:00.054Z</time>
      </trkpt>
      <trkpt lat="44.43421" lon="4.61015">
        <ele>135.78</ele>
        <time>2022-02-03T13:47:09.216Z</time>
      </trkpt>
      <trkpt lat="44.43412" lon="4.60988">
        <ele>136.46</ele>
        <time>2022-02-03T13:47:31.574Z</time>
      </trkpt>
      <trkpt lat="44.43412" lon="4.6096">
        <ele>138.96</ele>
        <time>2022-02-03T13:47:50.636Z</time>
      </trkpt>
      <trkpt lat="44.43416" lon="4.60934">
        <ele>141.65</ele>
        <time>2022-02-03T13:48:12.095Z</time>
      </trkpt>
      <trkpt lat="44.43414" lon="4.60896">
        <ele>144.34</ele>
        <time>2022-02-03T13:48:31.515Z</time>
      </trkpt>
      <trkpt lat="44.43423" lon="4.60862">
        <ele>146.2</ele>
        <time>2022-02-03T13:48:50.596Z</time>
      </trkpt>
      <trkpt lat="44.43428" lon="4.60851">
        <ele>146.66</ele>
        <time>2022-02-03T13:48:59.996Z</time>
      </trkpt>
      <trkpt lat="44.43432" lon="4.6082">
        <ele>147.18</ele>
        <time>2022-02-03T13:49:19.117Z</time>
      </trkpt>
      <trkpt lat="44.43453" lon="4.60816">
        <ele>147.76</ele>
        <time>2022-02-03T13:49:37.748Z</time>
      </trkpt>
      <trkpt lat="44.43476" lon="4.60829">
        <ele>148.46</ele>
        <time>2022-02-03T13:49:57.328Z</time>
      </trkpt>
      <trkpt lat="44.4349" lon="4.60824">
        <ele>149.56</ele>
        <time>2022-02-03T13:50:18.388Z</time>
      </trkpt>
      <trkpt lat="44.43509" lon="4.60806">
        <ele>152</ele>
        <time>2022-02-03T13:50:37.530Z</time>
      </trkpt>
      <trkpt lat="44.43521" lon="4.60801">
        <ele>153.44</ele>
        <time>2022-02-03T13:50:46.808Z</time>
      </trkpt>
      <trkpt lat="44.43541" lon="4.60789">
        <ele>155.87</ele>
        <time>2022-02-03T13:51:05.696Z</time>
      </trkpt>
      <trkpt lat="44.4356" lon="4.60772">
        <ele>157.7</ele>
        <time>2022-02-03T13:51:24.999Z</time>
      </trkpt>
      <trkpt lat="44.43573" lon="4.6075">
        <ele>159.8</ele>
        <time>2022-02-03T13:51:43.797Z</time>
      </trkpt>
      <trkpt lat="44.43585" lon="4.60725">
        <ele>163.91</ele>
        <time>2022-02-03T13:52:02.799Z</time>
      </trkpt>
      <trkpt lat="44.43601" lon="4.60711">
        <ele>167.49</ele>
        <time>2022-02-03T13:52:26.735Z</time>
      </trkpt>
      <trkpt lat="44.43611" lon="4.60702">
        <ele>169.27</ele>
        <time>2022-02-03T13:52:48.516Z</time>
      </trkpt>
      <trkpt lat="44.43647" lon="4.60676">
        <ele>172.71</ele>
        <time>2022-02-03T13:53:07.751Z</time>
      </trkpt>
      <trkpt lat="44.4367" lon="4.60673">
        <ele>173.94</ele>
        <time>2022-02-03T13:53:29.391Z</time>
      </trkpt>
      <trkpt lat="44.43698" lon="4.60668">
        <ele>177.04</ele>
        <time>2022-02-03T13:53:48.818Z</time>
      </trkpt>
      <trkpt lat="44.43721" lon="4.6065">
        <ele>181.01</ele>
        <time>2022-02-03T13:54:07.811Z</time>
      </trkpt>
      <trkpt lat="44.43737" lon="4.60631">
        <ele>185.12</ele>
        <time>2022-02-03T13:54:41.689Z</time>
      </trkpt>
      <trkpt lat="44.4375" lon="4.60621">
        <ele>187.78</ele>
        <time>2022-02-03T13:54:50.999Z</time>
      </trkpt>
      <trkpt lat="44.43771" lon="4.60616">
        <ele>190.16</ele>
        <time>2022-02-03T13:55:10.193Z</time>
      </trkpt>
      <trkpt lat="44.438" lon="4.60619">
        <ele>191.62</ele>
        <time>2022-02-03T13:55:29.999Z</time>
      </trkpt>
      <trkpt lat="44.43822" lon="4.60603">
        <ele>194.33</ele>
        <time>2022-02-03T13:55:50.709Z</time>
      </trkpt>
      <trkpt lat="44.43843" lon="4.60582">
        <ele>198.04</ele>
        <time>2022-02-03T13:56:14.033Z</time>
      </trkpt>
      <trkpt lat="44.43851" lon="4.60573">
        <ele>199.75</ele>
        <time>2022-02-03T13:56:23.334Z</time>
      </trkpt>
      <trkpt lat="44.4387" lon="4.60564">
        <ele>202.61</ele>
        <time>2022-02-03T13:56:45.808Z</time>
      </trkpt>
      <trkpt lat="44.43887" lon="4.6055">
        <ele>206.16</ele>
        <time>2022-02-03T13:57:10.372Z</time>
      </trkpt>
      <trkpt lat="44.43907" lon="4.60532">
        <ele>211.57</ele>
        <time>2022-02-03T13:57:31.000Z</time>
      </trkpt>
      <trkpt lat="44.43905" lon="4.60506">
        <ele>214.84</ele>
        <time>2022-02-03T13:57:57.000Z</time>
      </trkpt>
      <trkpt lat="44.43888" lon="4.60497">
        <ele>215.09</ele>
        <time>2022-02-03T13:58:30.493Z</time>
      </trkpt>
      <trkpt lat="44.43886" lon="4.60484">
        <ele>217.7</ele>
        <time>2022-02-03T13:58:40.450Z</time>
      </trkpt>
      <trkpt lat="44.43885" lon="4.60458">
        <ele>223.91</ele>
        <time>2022-02-03T13:59:03.292Z</time>
      </trkpt>
      <trkpt lat="44.43889" lon="4.60425">
        <ele>232.1</ele>
        <time>2022-02-03T13:59:25.712Z</time>
      </trkpt>
      <trkpt lat="44.43897" lon="4.60399">
        <ele>238.11</ele>
        <time>2022-02-03T13:59:44.573Z</time>
      </trkpt>
      <trkpt lat="44.43908" lon="4.60377">
        <ele>243.05</ele>
        <time>2022-02-03T14:00:11.086Z</time>
      </trkpt>
      <trkpt lat="44.43927" lon="4.60369">
        <ele>245.27</ele>
        <time>2022-02-03T14:00:38.000Z</time>
      </trkpt>
      <trkpt lat="44.43936" lon="4.60364">
        <ele>247.36</ele>
        <time>2022-02-03T14:00:48.520Z</time>
      </trkpt>
      <trkpt lat="44.43953" lon="4.60352">
        <ele>251.98</ele>
        <time>2022-02-03T14:01:08.392Z</time>
      </trkpt>
      <trkpt lat="44.43976" lon="4.60339">
        <ele>257.68</ele>
        <time>2022-02-03T14:01:47.252Z</time>
      </trkpt>
      <trkpt lat="44.43984" lon="4.60315">
        <ele>260.27</ele>
        <time>2022-02-03T14:02:09.130Z</time>
      </trkpt>
      <trkpt lat="44.43985" lon="4.60288">
        <ele>261.42</ele>
        <time>2022-02-03T14:02:32.271Z</time>
      </trkpt>
      <trkpt lat="44.43992" lon="4.60235">
        <ele>265.24</ele>
        <time>2022-02-03T14:03:26.491Z</time>
      </trkpt>
      <trkpt lat="44.43992" lon="4.60219">
        <ele>267.49</ele>
        <time>2022-02-03T14:03:35.672Z</time>
      </trkpt>
      <trkpt lat="44.43995" lon="4.6019">
        <ele>272.01</ele>
        <time>2022-02-03T14:03:57.000Z</time>
      </trkpt>
      <trkpt lat="44.44006" lon="4.60164">
        <ele>275.62</ele>
        <time>2022-02-03T14:04:17.613Z</time>
      </trkpt>
      <trkpt lat="44.44019" lon="4.60144">
        <ele>279</ele>
        <time>2022-02-03T14:04:41.309Z</time>
      </trkpt>
      <trkpt lat="44.44023" lon="4.60116">
        <ele>281.2</ele>
        <time>2022-02-03T14:04:59.350Z</time>
      </trkpt>
      <trkpt lat="44.44021" lon="4.60089">
        <ele>282</ele>
        <time>2022-02-03T14:05:24.999Z</time>
      </trkpt>
      <trkpt lat="44.44021" lon="4.60075">
        <ele>282.79</ele>
        <time>2022-02-03T14:05:34.553Z</time>
      </trkpt>
      <trkpt lat="44.44021" lon="4.60048">
        <ele>284.49</ele>
        <time>2022-02-03T14:05:59.672Z</time>
      </trkpt>
      <trkpt lat="44.44035" lon="4.60027">
        <ele>287.5</ele>
        <time>2022-02-03T14:06:31.734Z</time>
      </trkpt>
      <trkpt lat="44.44057" lon="4.60013">
        <ele>291.7</ele>
        <time>2022-02-03T14:06:57.999Z</time>
      </trkpt>
      <trkpt lat="44.44075" lon="4.59993">
        <ele>296.15</ele>
        <time>2022-02-03T14:07:30.816Z</time>
      </trkpt>
      <trkpt lat="44.44088" lon="4.59975">
        <ele>300.5</ele>
        <time>2022-02-03T14:08:00.827Z</time>
      </trkpt>
      <trkpt lat="44.44095" lon="4.59965">
        <ele>303.02</ele>
        <time>2022-02-03T14:08:09.873Z</time>
      </trkpt>
      <trkpt lat="44.44123" lon="4.5993">
        <ele>309.83</ele>
        <time>2022-02-03T14:08:29.835Z</time>
      </trkpt>
      <trkpt lat="44.44135" lon="4.5991">
        <ele>311.45</ele>
        <time>2022-02-03T14:08:58.396Z</time>
      </trkpt>
      <trkpt lat="44.44158" lon="4.59883">
        <ele>313.81</ele>
        <time>2022-02-03T14:09:31.257Z</time>
      </trkpt>
      <trkpt lat="44.44189" lon="4.59868">
        <ele>315.96</ele>
        <time>2022-02-03T14:09:50.595Z</time>
      </trkpt>
      <trkpt lat="44.44218" lon="4.59869">
        <ele>317</ele>
        <time>2022-02-03T14:10:13.337Z</time>
      </trkpt>
      <trkpt lat="44.44227" lon="4.59871">
        <ele>317.41</ele>
        <time>2022-02-03T14:10:24.296Z</time>
      </trkpt>
      <trkpt lat="44.44254" lon="4.5987">
        <ele>319.3</ele>
        <time>2022-02-03T14:10:44.999Z</time>
      </trkpt>
      <trkpt lat="44.44278" lon="4.5987">
        <ele>321.53</ele>
        <time>2022-02-03T14:11:04.151Z</time>
      </trkpt>
      <trkpt lat="44.44299" lon="4.59883">
        <ele>323.85</ele>
        <time>2022-02-03T14:11:22.999Z</time>
      </trkpt>
      <trkpt lat="44.44323" lon="4.59889">
        <ele>326.44</ele>
        <time>2022-02-03T14:11:41.366Z</time>
      </trkpt>
      <trkpt lat="44.44346" lon="4.59898">
        <ele>328.65</ele>
        <time>2022-02-03T14:12:00.637Z</time>
      </trkpt>
      <trkpt lat="44.44354" lon="4.59905">
        <ele>329.46</ele>
        <time>2022-02-03T14:12:24.382Z</time>
      </trkpt>
      <trkpt lat="44.44383" lon="4.59932">
        <ele>332.24</ele>
        <time>2022-02-03T14:12:48.659Z</time>
      </trkpt>
      <trkpt lat="44.44409" lon="4.59947">
        <ele>334.11</ele>
        <time>2022-02-03T14:13:08.420Z</time>
      </trkpt>
      <trkpt lat="44.44431" lon="4.59961">
        <ele>335.8</ele>
        <time>2022-02-03T14:13:27.680Z</time>
      </trkpt>
      <trkpt lat="44.44438" lon="4.59995">
        <ele>337.25</ele>
        <time>2022-02-03T14:18:56.000Z</time>
      </trkpt>
      <trkpt lat="44.4444" lon="4.60011">
        <ele>337.67</ele>
        <time>2022-02-03T14:19:06.000Z</time>
      </trkpt>
      <trkpt lat="44.44443" lon="4.60037">
        <ele>338.23</ele>
        <time>2022-02-03T14:19:25.033Z</time>
      </trkpt>
      <trkpt lat="44.44445" lon="4.60065">
        <ele>338.41</ele>
        <time>2022-02-03T14:19:44.013Z</time>
      </trkpt>
      <trkpt lat="44.44441" lon="4.60095">
        <ele>338</ele>
        <time>2022-02-03T14:20:02.734Z</time>
      </trkpt>
      <trkpt lat="44.44432" lon="4.6012">
        <ele>337.89</ele>
        <time>2022-02-03T14:20:23.674Z</time>
      </trkpt>
      <trkpt lat="44.44422" lon="4.60152">
        <ele>338.99</ele>
        <time>2022-02-03T14:21:04.352Z</time>
      </trkpt>
      <trkpt lat="44.44419" lon="4.60167">
        <ele>339.74</ele>
        <time>2022-02-03T14:21:13.353Z</time>
      </trkpt>
      <trkpt lat="44.44411" lon="4.60218">
        <ele>342.68</ele>
        <time>2022-02-03T14:21:59.000Z</time>
      </trkpt>
      <trkpt lat="44.44398" lon="4.60286">
        <ele>345.82</ele>
        <time>2022-02-03T14:22:17.493Z</time>
      </trkpt>
      <trkpt lat="44.44395" lon="4.60324">
        <ele>346.59</ele>
        <time>2022-02-03T14:22:36.112Z</time>
      </trkpt>
      <trkpt lat="44.44395" lon="4.60351">
        <ele>346.71</ele>
        <time>2022-02-03T14:23:03.414Z</time>
      </trkpt>
      <trkpt lat="44.44386" lon="4.60401">
        <ele>346.58</ele>
        <time>2022-02-03T14:23:22.434Z</time>
      </trkpt>
      <trkpt lat="44.44388" lon="4.60422">
        <ele>346.1</ele>
        <time>2022-02-03T14:23:31.831Z</time>
      </trkpt>
      <trkpt lat="44.44393" lon="4.6045">
        <ele>345</ele>
        <time>2022-02-03T14:23:50.414Z</time>
      </trkpt>
      <trkpt lat="44.44397" lon="4.60476">
        <ele>343.85</ele>
        <time>2022-02-03T14:24:09.314Z</time>
      </trkpt>
      <trkpt lat="44.44408" lon="4.60504">
        <ele>343.06</ele>
        <time>2022-02-03T14:24:29.975Z</time>
      </trkpt>
      <trkpt lat="44.44428" lon="4.60528">
        <ele>341.99</ele>
        <time>2022-02-03T14:24:48.447Z</time>
      </trkpt>
      <trkpt lat="44.44442" lon="4.60553">
        <ele>339.99</ele>
        <time>2022-02-03T14:25:07.634Z</time>
      </trkpt>
      <trkpt lat="44.44437" lon="4.6057">
        <ele>340.12</ele>
        <time>2022-02-03T14:25:16.971Z</time>
      </trkpt>
      <trkpt lat="44.44441" lon="4.60596">
        <ele>339.24</ele>
        <time>2022-02-03T14:25:35.999Z</time>
      </trkpt>
      <trkpt lat="44.44434" lon="4.60623">
        <ele>341.18</ele>
        <time>2022-02-03T14:25:56.493Z</time>
      </trkpt>
      <trkpt lat="44.44413" lon="4.60642">
        <ele>344.85</ele>
        <time>2022-02-03T14:26:21.613Z</time>
      </trkpt>
      <trkpt lat="44.44389" lon="4.60649">
        <ele>344.29</ele>
        <time>2022-02-03T14:26:40.349Z</time>
      </trkpt>
      <trkpt lat="44.44366" lon="4.60674">
        <ele>341.67</ele>
        <time>2022-02-03T14:27:04.231Z</time>
      </trkpt>
      <trkpt lat="44.44355" lon="4.60681">
        <ele>339.91</ele>
        <time>2022-02-03T14:27:13.392Z</time>
      </trkpt>
      <trkpt lat="44.44337" lon="4.60698">
        <ele>337.59</ele>
        <time>2022-02-03T14:27:32.999Z</time>
      </trkpt>
      <trkpt lat="44.44326" lon="4.60725">
        <ele>337.67</ele>
        <time>2022-02-03T14:27:55.854Z</time>
      </trkpt>
      <trkpt lat="44.44321" lon="4.60752">
        <ele>338.04</ele>
        <time>2022-02-03T14:28:21.393Z</time>
      </trkpt>
      <trkpt lat="44.44318" lon="4.6081">
        <ele>334.24</ele>
        <time>2022-02-03T14:28:39.753Z</time>
      </trkpt>
      <trkpt lat="44.44323" lon="4.60846">
        <ele>331.17</ele>
        <time>2022-02-03T14:28:58.651Z</time>
      </trkpt>
      <trkpt lat="44.44321" lon="4.60861">
        <ele>331.25</ele>
        <time>2022-02-03T14:29:08.730Z</time>
      </trkpt>
      <trkpt lat="44.44317" lon="4.6089">
        <ele>331.84</ele>
        <time>2022-02-03T14:29:27.314Z</time>
      </trkpt>
      <trkpt lat="44.44317" lon="4.60923">
        <ele>332.02</ele>
        <time>2022-02-03T14:29:47.535Z</time>
      </trkpt>
      <trkpt lat="44.4431" lon="4.60954">
        <ele>334.82</ele>
        <time>2022-02-03T14:30:06.376Z</time>
      </trkpt>
      <trkpt lat="44.44309" lon="4.60981">
        <ele>335.46</ele>
        <time>2022-02-03T14:30:24.812Z</time>
      </trkpt>
      <trkpt lat="44.44308" lon="4.61009">
        <ele>335.34</ele>
        <time>2022-02-03T14:30:43.192Z</time>
      </trkpt>
      <trkpt lat="44.44307" lon="4.61021">
        <ele>334.97</ele>
        <time>2022-02-03T14:30:54.999Z</time>
      </trkpt>
      <trkpt lat="44.44292" lon="4.61045">
        <ele>336.3</ele>
        <time>2022-02-03T14:31:14.112Z</time>
      </trkpt>
      <trkpt lat="44.44275" lon="4.61062">
        <ele>336.78</ele>
        <time>2022-02-03T14:31:32.999Z</time>
      </trkpt>
      <trkpt lat="44.44259" lon="4.61085">
        <ele>335.74</ele>
        <time>2022-02-03T14:31:54.497Z</time>
      </trkpt>
      <trkpt lat="44.44254" lon="4.61108">
        <ele>334.66</ele>
        <time>2022-02-03T14:32:12.992Z</time>
      </trkpt>
      <trkpt lat="44.44253" lon="4.61122">
        <ele>334.14</ele>
        <time>2022-02-03T14:32:22.414Z</time>
      </trkpt>
      <trkpt lat="44.44251" lon="4.61156">
        <ele>333.28</ele>
        <time>2022-02-03T14:32:41.352Z</time>
      </trkpt>
      <trkpt lat="44.44254" lon="4.61186">
        <ele>332.43</ele>
        <time>2022-02-03T14:33:01.457Z</time>
      </trkpt>
      <trkpt lat="44.44266" lon="4.61205">
        <ele>330.82</ele>
        <time>2022-02-03T14:34:09.000Z</time>
      </trkpt>
      <trkpt lat="44.4427" lon="4.6123">
        <ele>329.15</ele>
        <time>2022-02-03T14:38:39.754Z</time>
      </trkpt>
      <trkpt lat="44.44247" lon="4.61219">
        <ele>332.94</ele>
        <time>2022-02-03T14:38:58.655Z</time>
      </trkpt>
      <trkpt lat="44.44237" lon="4.61226">
        <ele>333.35</ele>
        <time>2022-02-03T14:39:09.000Z</time>
      </trkpt>
      <trkpt lat="44.44222" lon="4.61248">
        <ele>332.59</ele>
        <time>2022-02-03T14:39:32.825Z</time>
      </trkpt>
      <trkpt lat="44.4423" lon="4.61272">
        <ele>330.29</ele>
        <time>2022-02-03T14:39:51.455Z</time>
      </trkpt>
      <trkpt lat="44.44224" lon="4.613">
        <ele>326.62</ele>
        <time>2022-02-03T14:40:14.336Z</time>
      </trkpt>
      <trkpt lat="44.4422" lon="4.61329">
        <ele>321.59</ele>
        <time>2022-02-03T14:40:33.337Z</time>
      </trkpt>
      <trkpt lat="44.44214" lon="4.61358">
        <ele>315.86</ele>
        <time>2022-02-03T14:40:52.075Z</time>
      </trkpt>
      <trkpt lat="44.44211" lon="4.6137">
        <ele>313.11</ele>
        <time>2022-02-03T14:41:05.000Z</time>
      </trkpt>
      <trkpt lat="44.44209" lon="4.61388">
        <ele>309.06</ele>
        <time>2022-02-03T14:43:09.507Z</time>
      </trkpt>
      <trkpt lat="44.4419" lon="4.61399">
        <ele>310</ele>
        <time>2022-02-03T14:43:28.999Z</time>
      </trkpt>
      <trkpt lat="44.44173" lon="4.61418">
        <ele>308.4</ele>
        <time>2022-02-03T14:43:47.258Z</time>
      </trkpt>
      <trkpt lat="44.44172" lon="4.61444">
        <ele>302.51</ele>
        <time>2022-02-03T14:44:16.999Z</time>
      </trkpt>
      <trkpt lat="44.44158" lon="4.61461">
        <ele>299.49</ele>
        <time>2022-02-03T14:44:43.028Z</time>
      </trkpt>
      <trkpt lat="44.4415" lon="4.6147">
        <ele>297.46</ele>
        <time>2022-02-03T14:44:53.999Z</time>
      </trkpt>
      <trkpt lat="44.44139" lon="4.61491">
        <ele>292.16</ele>
        <time>2022-02-03T14:45:21.999Z</time>
      </trkpt>
      <trkpt lat="44.4412" lon="4.61505">
        <ele>287.35</ele>
        <time>2022-02-03T14:45:42.167Z</time>
      </trkpt>
      <trkpt lat="44.44109" lon="4.61523">
        <ele>281.68</ele>
        <time>2022-02-03T14:46:12.999Z</time>
      </trkpt>
      <trkpt lat="44.44097" lon="4.61545">
        <ele>274.33</ele>
        <time>2022-02-03T14:46:50.450Z</time>
      </trkpt>
      <trkpt lat="44.4408" lon="4.61554">
        <ele>269.8</ele>
        <time>2022-02-03T14:47:17.349Z</time>
      </trkpt>
      <trkpt lat="44.44069" lon="4.61563">
        <ele>265.92</ele>
        <time>2022-02-03T14:47:26.691Z</time>
      </trkpt>
      <trkpt lat="44.44058" lon="4.61581">
        <ele>259.31</ele>
        <time>2022-02-03T14:47:51.999Z</time>
      </trkpt>
      <trkpt lat="44.44055" lon="4.61606">
        <ele>252.15</ele>
        <time>2022-02-03T14:48:19.999Z</time>
      </trkpt>
      <trkpt lat="44.44045" lon="4.6162">
        <ele>246.42</ele>
        <time>2022-02-03T14:48:54.230Z</time>
      </trkpt>
      <trkpt lat="44.44051" lon="4.61645">
        <ele>240.22</ele>
        <time>2022-02-03T14:49:15.817Z</time>
      </trkpt>
      <trkpt lat="44.44053" lon="4.6167">
        <ele>232.78</ele>
        <time>2022-02-03T14:49:52.669Z</time>
      </trkpt>
      <trkpt lat="44.44053" lon="4.61683">
        <ele>228.76</ele>
        <time>2022-02-03T14:50:08.826Z</time>
      </trkpt>
      <trkpt lat="44.44044" lon="4.61708">
        <ele>221.17</ele>
        <time>2022-02-03T14:50:36.611Z</time>
      </trkpt>
      <trkpt lat="44.44037" lon="4.61733">
        <ele>214.57</ele>
        <time>2022-02-03T14:50:58.651Z</time>
      </trkpt>
      <trkpt lat="44.44031" lon="4.61757">
        <ele>208.96</ele>
        <time>2022-02-03T14:51:18.210Z</time>
      </trkpt>
      <trkpt lat="44.44022" lon="4.61782">
        <ele>204.19</ele>
        <time>2022-02-03T14:51:50.567Z</time>
      </trkpt>
      <trkpt lat="44.44021" lon="4.61808">
        <ele>198.63</ele>
        <time>2022-02-03T14:52:19.822Z</time>
      </trkpt>
      <trkpt lat="44.44019" lon="4.61821">
        <ele>196.03</ele>
        <time>2022-02-03T14:52:38.549Z</time>
      </trkpt>
      <trkpt lat="44.44023" lon="4.61854">
        <ele>188.21</ele>
        <time>2022-02-03T14:52:58.629Z</time>
      </trkpt>
      <trkpt lat="44.44031" lon="4.61877">
        <ele>181.23</ele>
        <time>2022-02-03T14:53:22.833Z</time>
      </trkpt>
      <trkpt lat="44.44029" lon="4.61902">
        <ele>175.71</ele>
        <time>2022-02-03T14:53:54.773Z</time>
      </trkpt>
      <trkpt lat="44.44041" lon="4.61921">
        <ele>168.16</ele>
        <time>2022-02-03T14:54:17.274Z</time>
      </trkpt>
      <trkpt lat="44.44038" lon="4.61945">
        <ele>162.7</ele>
        <time>2022-02-03T14:54:41.000Z</time>
      </trkpt>
      <trkpt lat="44.44037" lon="4.61958">
        <ele>159.67</ele>
        <time>2022-02-03T14:55:06.512Z</time>
      </trkpt>
      <trkpt lat="44.4403" lon="4.61976">
        <ele>156.28</ele>
        <time>2022-02-03T14:56:10.674Z</time>
      </trkpt>
      <trkpt lat="44.44035" lon="4.62002">
        <ele>148.08</ele>
        <time>2022-02-03T14:56:37.695Z</time>
      </trkpt>
      <trkpt lat="44.44042" lon="4.62027">
        <ele>139.1</ele>
        <time>2022-02-03T14:57:00.819Z</time>
      </trkpt>
      <trkpt lat="44.44053" lon="4.62048">
        <ele>130.37</ele>
        <time>2022-02-03T14:57:24.770Z</time>
      </trkpt>
      <trkpt lat="44.44056" lon="4.6206">
        <ele>126.41</ele>
        <time>2022-02-03T14:57:35.612Z</time>
      </trkpt>
      <trkpt lat="44.44052" lon="4.62087">
        <ele>121.14</ele>
        <time>2022-02-03T14:57:57.297Z</time>
      </trkpt>
      <trkpt lat="44.44053" lon="4.62111">
        <ele>117.82</ele>
        <time>2022-02-03T14:58:51.000Z</time>
      </trkpt>
      <trkpt lat="44.44051" lon="4.62138">
        <ele>115.89</ele>
        <time>2022-02-03T14:59:15.329Z</time>
      </trkpt>
      <trkpt lat="44.44056" lon="4.62161">
        <ele>115.06</ele>
        <time>2022-02-03T14:59:57.000Z</time>
      </trkpt>
      <trkpt lat="44.44055" lon="4.62187">
        <ele>115.84</ele>
        <time>2022-02-03T15:00:18.869Z</time>
      </trkpt>
      <trkpt lat="44.44043" lon="4.62196">
        <ele>115.76</ele>
        <time>2022-02-03T15:00:28.653Z</time>
      </trkpt>
      <trkpt lat="44.44026" lon="4.62184">
        <ele>115.32</ele>
        <time>2022-02-03T15:00:53.988Z</time>
      </trkpt>
      <trkpt lat="44.44011" lon="4.62182">
        <ele>116.11</ele>
        <time>2022-02-03T15:01:16.250Z</time>
      </trkpt>
      <trkpt lat="44.44026" lon="4.62216">
        <ele>115.61</ele>
        <time>2022-02-03T15:01:37.611Z</time>
      </trkpt>
      <trkpt lat="44.44039" lon="4.62238">
        <ele>117.68</ele>
        <time>2022-02-03T15:02:05.232Z</time>
      </trkpt>
      <trkpt lat="44.4404" lon="4.62265">
        <ele>117.62</ele>
        <time>2022-02-03T15:02:37.073Z</time>
      </trkpt>
      <trkpt lat="44.4403" lon="4.6228">
        <ele>115.62</ele>
        <time>2022-02-03T15:02:46.595Z</time>
      </trkpt>
      <trkpt lat="44.44014" lon="4.62304">
        <ele>113.51</ele>
        <time>2022-02-03T15:03:11.116Z</time>
      </trkpt>
      <trkpt lat="44.44001" lon="4.6233">
        <ele>113.04</ele>
        <time>2022-02-03T15:03:30.999Z</time>
      </trkpt>
      <trkpt lat="44.43992" lon="4.62364">
        <ele>112.18</ele>
        <time>2022-02-03T15:03:51.117Z</time>
      </trkpt>
      <trkpt lat="44.43979" lon="4.62386">
        <ele>111.38</ele>
        <time>2022-02-03T15:04:09.536Z</time>
      </trkpt>
      <trkpt lat="44.43957" lon="4.62407">
        <ele>110.24</ele>
        <time>2022-02-03T15:04:27.617Z</time>
      </trkpt>
      <trkpt lat="44.43945" lon="4.62411">
        <ele>110.02</ele>
        <time>2022-02-03T15:04:36.811Z</time>
      </trkpt>
      <trkpt lat="44.43937" lon="4.62448">
        <ele>108.73</ele>
        <time>2022-02-03T15:05:02.597Z</time>
      </trkpt>
      <trkpt lat="44.43919" lon="4.62464">
        <ele>108.54</ele>
        <time>2022-02-03T15:05:21.656Z</time>
      </trkpt>
      <trkpt lat="44.43913" lon="4.62477">
        <ele>108.81</ele>
        <time>2022-02-03T15:06:07.999Z</time>
      </trkpt>
    </trkseg>
  </trk>
</gpx>